Time,TemperatureF,DewpointF,PressureIn,WindDirection,WindDirectionDegrees,WindSpeedMPH,WindSpeedGustMPH,Humidity,HourlyPrecipIn,Conditions,Clouds,dailyrainin,SoftwareType,DateUTC
2013-05-12 00:00:00,72.0,64.8,30.03,WNW,291,0.0,0.0,78,0.00,,,0.00,Wunderground v.1.15,2013-05-12 04:00:00,
2013-05-12 00:01:00,71.8,64.6,30.04,WNW,291,0.0,0.0,78,0.00,,,0.00,Wunderground v.1.15,2013-05-12 04:01:00,
2013-05-12 00:06:00,71.5,64.6,30.03,WNW,291,0.0,0.0,79,0.00,,,0.00,Wunderground v.1.15,2013-05-12 04:06:00,
2013-05-12 00:07:00,71.5,64.6,30.03,WNW,291,0.0,0.0,79,0.00,,,0.00,Wunderground v.1.15,2013-05-12 04:07:00,
2013-05-12 00:11:00,71.1,64.6,30.04,WNW,291,0.0,0.0,80,0.00,,,0.00,Wunderground v.1.15,2013-05-12 04:11:00,
2013-05-12 00:12:00,71.1,64.6,30.04,WNW,291,0.0,0.0,80,0.00,,,0.00,Wunderground v.1.15,2013-05-12 04:12:00,
2013-05-12 00:16:00,70.8,64.3,30.04,WNW,291,0.0,0.0,80,0.00,,,0.00,Wunderground v.1.15,2013-05-12 04:16:00,
2013-05-12 00:17:00,70.8,64.3,30.04,WNW,291,0.0,0.0,80,0.00,,,0.00,Wunderground v.1.15,2013-05-12 04:17:00,
2013-05-12 00:18:00,70.8,64.7,30.04,WNW,291,0.0,0.0,81,0.00,,,0.00,Wunderground v.1.15,2013-05-12 04:18:00,
2013-05-12 00:21:00,70.8,64.7,30.04,WNW,291,0.0,0.0,81,0.00,,,0.00,Wunderground v.1.15,2013-05-12 04:21:00,
2013-05-12 00:22:00,70.8,64.7,30.04,WNW,291,0.0,0.0,81,0.00,,,0.00,Wunderground v.1.15,2013-05-12 04:22:00,
2013-05-12 00:23:00,70.8,64.7,30.04,WNW,291,0.0,0.0,81,0.00,,,0.00,Wunderground v.1.15,2013-05-12 04:23:00,
2013-05-12 00:27:00,70.6,64.8,30.03,WNW,291,0.0,0.0,82,0.00,,,0.00,Wunderground v.1.15,2013-05-12 04:27:00,
2013-05-12 00:28:00,70.6,64.8,30.03,WNW,291,0.0,0.0,82,0.00,,,0.00,Wunderground v.1.15,2013-05-12 04:28:00,
2013-05-12 00:32:00,70.6,64.8,30.03,WNW,291,0.0,0.0,82,0.00,,,0.00,Wunderground v.1.15,2013-05-12 04:32:00,
2013-05-12 00:33:00,70.6,64.8,30.03,WNW,291,0.0,0.0,82,0.00,,,0.00,Wunderground v.1.15,2013-05-12 04:33:00,
2013-05-12 00:34:00,70.6,64.5,30.03,WNW,291,0.0,0.0,81,0.00,,,0.00,Wunderground v.1.15,2013-05-12 04:34:00,
2013-05-12 00:37:00,70.6,64.5,30.03,WNW,291,0.0,0.0,81,0.00,,,0.00,Wunderground v.1.15,2013-05-12 04:37:00,
2013-05-12 00:38:00,70.6,64.5,30.03,WNW,291,0.0,0.0,81,0.00,,,0.00,Wunderground v.1.15,2013-05-12 04:38:00,
2013-05-12 00:40:00,70.6,64.8,30.03,WNW,291,0.0,0.0,82,0.00,,,0.00,Wunderground v.1.15,2013-05-12 04:40:00,
2013-05-12 00:43:00,70.4,64.6,30.03,WNW,291,0.0,0.0,82,0.00,,,0.00,Wunderground v.1.15,2013-05-12 04:43:00,
2013-05-12 00:44:00,70.4,64.6,30.03,WNW,291,0.0,0.0,82,0.00,,,0.00,Wunderground v.1.15,2013-05-12 04:44:00,
2013-05-12 00:46:00,70.6,64.8,30.04,WNW,291,0.0,0.0,82,0.00,,,0.00,Wunderground v.1.15,2013-05-12 04:46:00,
2013-05-12 00:48:00,70.6,64.8,30.03,WNW,291,0.0,0.0,82,0.00,,,0.00,Wunderground v.1.15,2013-05-12 04:48:00,
2013-05-12 00:49:00,70.6,64.8,30.04,WNW,291,0.0,0.0,82,0.00,,,0.00,Wunderground v.1.15,2013-05-12 04:49:00,
2013-05-12 00:51:00,70.6,64.8,30.03,WNW,291,0.0,0.0,82,0.00,,,0.00,Wunderground v.1.15,2013-05-12 04:51:00,
2013-05-12 00:53:00,70.6,64.8,30.04,WNW,291,0.0,0.0,82,0.00,,,0.00,Wunderground v.1.15,2013-05-12 04:53:00,
2013-05-12 00:54:00,70.6,64.5,30.04,WNW,291,0.0,0.0,81,0.00,,,0.00,Wunderground v.1.15,2013-05-12 04:54:00,
2013-05-12 00:56:00,70.6,64.5,30.04,WNW,291,0.0,0.0,81,0.00,,,0.00,Wunderground v.1.15,2013-05-12 04:56:00,
2013-05-12 00:58:00,70.6,64.5,30.04,WNW,291,0.0,0.0,81,0.00,,,0.00,Wunderground v.1.15,2013-05-12 04:58:00,
2013-05-12 00:59:00,70.6,64.5,30.03,WNW,291,0.0,0.0,81,0.00,,,0.00,Wunderground v.1.15,2013-05-12 04:59:00,
2013-05-12 01:05:00,70.3,64.5,30.03,WNW,291,0.0,0.0,82,0.00,,,0.00,Wunderground v.1.15,2013-05-12 05:05:00,
2013-05-12 01:06:00,70.3,64.5,30.04,WNW,291,0.0,0.0,82,0.00,,,0.00,Wunderground v.1.15,2013-05-12 05:06:00,
2013-05-12 01:07:00,70.1,64.3,30.03,WNW,291,0.0,0.0,82,0.00,,,0.00,Wunderground v.1.15,2013-05-12 05:07:00,
2013-05-12 01:08:00,70.1,64.3,30.04,WNW,291,0.0,0.0,82,0.00,,,0.00,Wunderground v.1.15,2013-05-12 05:08:00,
2013-05-12 01:09:00,70.1,64.3,30.03,WNW,291,0.0,0.0,82,0.00,,,0.00,Wunderground v.1.15,2013-05-12 05:09:00,
2013-05-12 01:12:00,70.1,64.3,30.03,WNW,291,0.0,0.0,82,0.00,,,0.00,Wunderground v.1.15,2013-05-12 05:12:00,
2013-05-12 01:13:00,70.3,64.5,30.03,WNW,291,0.0,0.0,82,0.00,,,0.00,Wunderground v.1.15,2013-05-12 05:13:00,
2013-05-12 01:14:00,70.3,64.5,30.03,WNW,291,0.0,0.0,82,0.00,,,0.00,Wunderground v.1.15,2013-05-12 05:14:00,
2013-05-12 01:19:00,70.3,64.5,30.03,WNW,291,0.0,0.0,82,0.00,,,0.00,Wunderground v.1.15,2013-05-12 05:19:00,
2013-05-12 01:20:00,70.1,64.3,30.03,WNW,291,0.0,0.0,82,0.00,,,0.00,Wunderground v.1.15,2013-05-12 05:20:00,
2013-05-12 01:21:00,70.1,64.3,30.03,WNW,291,0.0,0.0,82,0.00,,,0.00,Wunderground v.1.15,2013-05-12 05:21:00,
2013-05-12 01:22:00,70.1,64.3,30.03,WNW,291,0.0,0.0,82,0.00,,,0.00,Wunderground v.1.15,2013-05-12 05:22:00,
2013-05-12 01:25:00,69.9,64.2,30.03,WNW,291,0.0,0.0,82,0.00,,,0.00,Wunderground v.1.15,2013-05-12 05:25:00,
2013-05-12 01:28:00,69.8,64.1,30.03,WNW,291,0.0,0.0,82,0.00,,,0.00,Wunderground v.1.15,2013-05-12 05:28:00,
2013-05-12 01:29:00,69.8,64.4,30.03,WNW,291,0.0,0.0,83,0.00,,,0.00,Wunderground v.1.15,2013-05-12 05:29:00,
2013-05-12 01:31:00,69.8,64.4,30.03,WNW,291,0.0,0.0,83,0.00,,,0.00,Wunderground v.1.15,2013-05-12 05:31:00,
2013-05-12 01:32:00,69.8,64.4,30.03,WNW,291,0.0,0.0,83,0.00,,,0.00,Wunderground v.1.15,2013-05-12 05:32:00,
2013-05-12 01:34:00,69.8,64.4,30.03,WNW,291,0.0,0.0,83,0.00,,,0.00,Wunderground v.1.15,2013-05-12 05:34:00,
2013-05-12 01:36:00,69.6,64.2,30.03,WNW,291,0.0,0.0,83,0.00,,,0.00,Wunderground v.1.15,2013-05-12 05:36:00,
2013-05-12 01:38:00,69.6,64.2,30.03,WNW,291,0.0,0.0,83,0.00,,,0.00,Wunderground v.1.15,2013-05-12 05:38:00,
2013-05-12 01:39:00,69.6,64.2,30.03,WNW,291,0.0,0.0,83,0.00,,,0.00,Wunderground v.1.15,2013-05-12 05:39:00,
2013-05-12 01:41:00,69.4,64.4,30.03,WNW,291,0.0,0.0,84,0.00,,,0.00,Wunderground v.1.15,2013-05-12 05:41:00,
2013-05-12 01:43:00,69.3,64.3,30.03,WNW,291,0.0,0.0,84,0.00,,,0.00,Wunderground v.1.15,2013-05-12 05:43:00,
2013-05-12 01:44:00,69.3,64.3,30.03,WNW,291,0.0,0.0,84,0.00,,,0.00,Wunderground v.1.15,2013-05-12 05:44:00,
2013-05-12 01:46:00,69.3,64.3,30.03,WNW,291,0.0,0.0,84,0.00,,,0.00,Wunderground v.1.15,2013-05-12 05:46:00,
2013-05-12 01:47:00,69.3,64.3,30.03,WNW,291,0.0,0.0,84,0.00,,,0.00,Wunderground v.1.15,2013-05-12 05:47:00,
2013-05-12 01:48:00,69.3,64.3,30.03,WNW,291,0.0,0.0,84,0.00,,,0.00,Wunderground v.1.15,2013-05-12 05:48:00,
2013-05-12 01:50:00,69.3,64.6,30.03,WNW,291,0.0,0.0,85,0.00,,,0.00,Wunderground v.1.15,2013-05-12 05:50:00,
2013-05-12 01:51:00,69.3,64.6,30.03,WNW,291,0.0,0.0,85,0.00,,,0.00,Wunderground v.1.15,2013-05-12 05:51:00,
2013-05-12 01:53:00,69.3,64.6,30.03,WNW,291,0.0,0.0,85,0.00,,,0.00,Wunderground v.1.15,2013-05-12 05:53:00,
2013-05-12 01:55:00,69.3,64.6,30.03,WNW,291,0.0,0.0,85,0.00,,,0.00,Wunderground v.1.15,2013-05-12 05:55:00,
2013-05-12 01:56:00,69.3,64.6,30.03,WNW,291,0.0,0.0,85,0.00,,,0.00,Wunderground v.1.15,2013-05-12 05:56:00,
2013-05-12 01:58:00,69.3,64.9,30.03,WNW,291,0.0,0.0,86,0.00,,,0.00,Wunderground v.1.15,2013-05-12 05:58:00,
2013-05-12 01:59:00,69.3,64.9,30.03,WNW,291,0.0,0.0,86,0.00,,,0.00,Wunderground v.1.15,2013-05-12 05:59:00,
2013-05-12 02:01:00,69.3,64.9,30.03,WNW,291,0.0,0.0,86,0.00,,,0.00,Wunderground v.1.15,2013-05-12 06:01:00,
2013-05-12 02:02:00,69.4,65.0,30.03,WNW,291,0.0,0.0,86,0.00,,,0.00,Wunderground v.1.15,2013-05-12 06:02:00,
2013-05-12 02:03:00,69.4,65.0,30.03,WNW,291,0.0,0.0,86,0.00,,,0.00,Wunderground v.1.15,2013-05-12 06:03:00,
2013-05-12 02:07:00,69.4,65.0,30.03,WNW,291,0.0,0.0,86,0.00,,,0.00,Wunderground v.1.15,2013-05-12 06:07:00,
2013-05-12 02:08:00,69.6,65.2,30.03,WNW,291,0.0,0.0,86,0.00,,,0.00,Wunderground v.1.15,2013-05-12 06:08:00,
2013-05-12 02:09:00,69.6,65.2,30.03,WNW,291,0.0,0.0,86,0.00,,,0.00,Wunderground v.1.15,2013-05-12 06:09:00,
2013-05-12 02:10:00,69.6,65.2,30.03,WNW,291,0.0,0.0,86,0.00,,,0.00,Wunderground v.1.15,2013-05-12 06:10:00,
2013-05-12 02:12:00,69.8,65.1,30.02,WNW,291,0.0,0.0,85,0.00,,,0.00,Wunderground v.1.15,2013-05-12 06:12:00,
2013-05-12 02:16:00,69.9,65.2,30.02,WNW,291,0.0,0.0,85,0.00,,,0.00,Wunderground v.1.15,2013-05-12 06:16:00,
2013-05-12 02:17:00,70.1,65.4,30.02,WNW,291,0.0,0.0,85,0.00,,,0.00,Wunderground v.1.15,2013-05-12 06:17:00,
2013-05-12 02:20:00,70.4,65.7,30.02,SSW,203,0.0,0.0,85,0.00,,,0.00,Wunderground v.1.15,2013-05-12 06:20:00,
2013-05-12 02:24:00,70.8,65.4,30.02,SSW,203,0.0,0.0,83,0.00,,,0.00,Wunderground v.1.15,2013-05-12 06:24:00,
2013-05-12 02:25:00,70.8,65.4,30.02,SSW,203,0.0,0.0,83,0.00,,,0.00,Wunderground v.1.15,2013-05-12 06:25:00,
2013-05-12 02:26:00,70.9,65.5,30.02,SSW,203,0.0,0.0,83,0.00,,,0.00,Wunderground v.1.15,2013-05-12 06:26:00,
2013-05-12 02:30:00,71.3,65.5,30.02,SSW,203,0.0,0.0,82,0.00,,,0.00,Wunderground v.1.15,2013-05-12 06:30:00,
2013-05-12 02:32:00,71.5,65.4,30.01,SSW,203,0.0,0.0,81,0.00,,,0.00,Wunderground v.1.15,2013-05-12 06:32:00,
2013-05-12 02:33:00,71.5,65.4,30.01,SSW,203,0.0,0.0,81,0.00,,,0.00,Wunderground v.1.15,2013-05-12 06:33:00,
2013-05-12 02:34:00,71.5,65.4,30.01,SSW,203,0.0,0.0,81,0.00,,,0.00,Wunderground v.1.15,2013-05-12 06:34:00,
2013-05-12 02:36:00,71.5,65.4,30.01,SSW,203,0.0,0.0,81,0.00,,,0.00,Wunderground v.1.15,2013-05-12 06:36:00,
2013-05-12 02:38:00,71.5,65.0,30.01,SSW,203,0.0,1.0,80,0.00,,,0.00,Wunderground v.1.15,2013-05-12 06:38:00,
2013-05-12 02:39:00,71.6,65.1,30.01,SSW,203,0.0,1.0,80,0.00,,,0.00,Wunderground v.1.15,2013-05-12 06:39:00,
2013-05-12 02:40:00,71.6,65.1,30.00,SSW,203,0.0,0.0,80,0.00,,,0.00,Wunderground v.1.15,2013-05-12 06:40:00,
2013-05-12 02:43:00,71.6,65.1,30.01,SSW,203,2.0,2.0,80,0.00,,,0.00,Wunderground v.1.15,2013-05-12 06:43:00,
2013-05-12 02:45:00,71.6,65.1,30.01,SSW,203,1.0,2.0,80,0.00,,,0.00,Wunderground v.1.15,2013-05-12 06:45:00,
2013-05-12 02:47:00,71.6,65.1,30.00,SSW,203,0.0,2.0,80,0.00,,,0.00,Wunderground v.1.15,2013-05-12 06:47:00,
2013-05-12 02:48:00,71.8,65.3,30.00,SSW,203,0.0,2.0,80,0.00,,,0.00,Wunderground v.1.15,2013-05-12 06:48:00,
2013-05-12 02:50:00,71.6,64.7,30.00,SSW,203,0.0,0.0,79,0.00,,,0.00,Wunderground v.1.15,2013-05-12 06:50:00,
2013-05-12 02:51:00,71.6,64.7,30.00,SSW,203,0.0,0.0,79,0.00,,,0.00,Wunderground v.1.15,2013-05-12 06:51:00,
2013-05-12 02:52:00,71.6,65.1,30.00,SSW,203,0.0,0.0,80,0.00,,,0.00,Wunderground v.1.15,2013-05-12 06:52:00,
2013-05-12 02:53:00,71.6,65.1,30.00,SSW,203,0.0,0.0,80,0.00,,,0.00,Wunderground v.1.15,2013-05-12 06:53:00,
2013-05-12 02:54:00,71.6,65.1,30.00,SSW,203,2.0,2.0,80,0.00,,,0.00,Wunderground v.1.15,2013-05-12 06:54:00,
2013-05-12 02:56:00,71.6,65.1,30.00,SSW,203,0.0,2.0,80,0.00,,,0.00,Wunderground v.1.15,2013-05-12 06:56:00,
2013-05-12 02:58:00,71.6,65.1,30.00,SSW,203,0.0,2.0,80,0.00,,,0.00,Wunderground v.1.15,2013-05-12 06:58:00,
2013-05-12 03:01:00,71.6,65.1,30.00,SSW,203,0.0,0.0,80,0.00,,,0.00,Wunderground v.1.15,2013-05-12 07:01:00,
2013-05-12 03:03:00,71.5,65.0,29.99,SSW,203,0.0,0.0,80,0.00,,,0.00,Wunderground v.1.15,2013-05-12 07:03:00,
2013-05-12 03:06:00,71.5,65.0,29.99,SSW,203,0.0,0.0,80,0.00,,,0.00,Wunderground v.1.15,2013-05-12 07:06:00,
2013-05-12 03:07:00,71.3,65.2,29.99,SSW,203,0.0,0.0,81,0.00,,,0.00,Wunderground v.1.15,2013-05-12 07:07:00,
2013-05-12 03:08:00,71.1,65.0,29.99,SSW,203,0.0,0.0,81,0.00,,,0.00,Wunderground v.1.15,2013-05-12 07:08:00,
2013-05-12 03:11:00,70.9,64.8,29.99,SSW,203,0.0,0.0,81,0.00,,,0.00,Wunderground v.1.15,2013-05-12 07:11:00,
2013-05-12 03:12:00,70.8,65.0,29.99,SSW,203,0.0,0.0,82,0.00,,,0.00,Wunderground v.1.15,2013-05-12 07:12:00,
2013-05-12 03:14:00,70.6,64.8,29.99,SSW,203,0.0,0.0,82,0.00,,,0.00,Wunderground v.1.15,2013-05-12 07:14:00,
2013-05-12 03:16:00,70.4,64.6,29.99,SSW,203,0.0,0.0,82,0.00,,,0.00,Wunderground v.1.15,2013-05-12 07:16:00,
2013-05-12 03:18:00,70.4,65.0,29.99,SSW,203,0.0,0.0,83,0.00,,,0.00,Wunderground v.1.15,2013-05-12 07:18:00,
2013-05-12 03:19:00,70.4,65.0,29.99,SSW,203,0.0,0.0,83,0.00,,,0.00,Wunderground v.1.15,2013-05-12 07:19:00,
2013-05-12 03:21:00,70.4,65.0,29.99,SSW,203,0.0,1.0,83,0.00,,,0.00,Wunderground v.1.15,2013-05-12 07:21:00,
2013-05-12 03:22:00,70.4,65.3,29.98,SSW,203,0.0,1.0,84,0.00,,,0.00,Wunderground v.1.15,2013-05-12 07:22:00,
2013-05-12 03:23:00,70.4,65.3,29.98,SSW,203,0.0,1.0,84,0.00,,,0.00,Wunderground v.1.15,2013-05-12 07:23:00,
2013-05-12 03:24:00,70.4,65.3,29.98,SSW,203,0.0,1.0,84,0.00,,,0.00,Wunderground v.1.15,2013-05-12 07:24:00,
2013-05-12 03:26:00,70.4,65.3,29.98,SSW,203,0.0,1.0,84,0.00,,,0.00,Wunderground v.1.15,2013-05-12 07:26:00,
2013-05-12 03:27:00,70.4,65.3,29.98,SSW,203,0.0,1.0,84,0.00,,,0.00,Wunderground v.1.15,2013-05-12 07:27:00,
2013-05-12 03:28:00,70.4,65.3,29.98,SSW,203,0.0,2.0,84,0.00,,,0.00,Wunderground v.1.15,2013-05-12 07:28:00,
2013-05-12 03:29:00,70.4,65.7,29.98,SSW,203,0.0,2.0,85,0.00,,,0.00,Wunderground v.1.15,2013-05-12 07:29:00,
2013-05-12 03:31:00,70.4,65.3,29.98,SSW,203,0.0,0.0,84,0.00,,,0.00,Wunderground v.1.15,2013-05-12 07:31:00,
2013-05-12 03:32:00,70.4,65.3,29.98,SSW,203,0.0,0.0,84,0.00,,,0.00,Wunderground v.1.15,2013-05-12 07:32:00,
2013-05-12 03:33:00,70.4,65.3,29.98,SSW,203,0.0,0.0,84,0.00,,,0.00,Wunderground v.1.15,2013-05-12 07:33:00,
2013-05-12 03:35:00,70.4,65.3,29.98,SSW,203,0.0,1.0,84,0.00,,,0.00,Wunderground v.1.15,2013-05-12 07:35:00,
2013-05-12 03:37:00,70.4,65.7,29.98,SSW,203,0.0,1.0,85,0.00,,,0.00,Wunderground v.1.15,2013-05-12 07:37:00,
2013-05-12 03:38:00,70.4,65.7,29.98,SSW,203,0.0,1.0,85,0.00,,,0.00,Wunderground v.1.15,2013-05-12 07:38:00,
2013-05-12 03:40:00,70.4,65.7,29.98,SSW,203,0.0,1.0,85,0.00,,,0.00,Wunderground v.1.15,2013-05-12 07:40:00,
2013-05-12 03:42:00,70.4,65.7,29.98,SSW,203,0.0,1.0,85,0.00,,,0.00,Wunderground v.1.15,2013-05-12 07:42:00,
2013-05-12 03:43:00,70.4,65.7,29.98,SSW,203,0.0,1.0,85,0.00,,,0.00,Wunderground v.1.15,2013-05-12 07:43:00,
2013-05-12 03:45:00,70.4,65.7,29.98,SSW,203,0.0,1.0,85,0.00,,,0.00,Wunderground v.1.15,2013-05-12 07:45:00,
2013-05-12 03:48:00,70.4,65.7,29.98,SSW,203,0.0,1.0,85,0.00,,,0.00,Wunderground v.1.15,2013-05-12 07:48:00,
2013-05-12 03:49:00,70.4,65.7,29.98,SSW,203,0.0,1.0,85,0.00,,,0.00,Wunderground v.1.15,2013-05-12 07:49:00,
2013-05-12 03:50:00,70.4,65.3,29.98,SSW,203,0.0,0.0,84,0.00,,,0.00,Wunderground v.1.15,2013-05-12 07:50:00,
2013-05-12 03:52:00,70.4,65.3,29.97,SSW,203,0.0,0.0,84,0.00,,,0.00,Wunderground v.1.15,2013-05-12 07:52:00,
2013-05-12 03:53:00,70.4,65.3,29.98,SSW,203,0.0,0.0,84,0.00,,,0.00,Wunderground v.1.15,2013-05-12 07:53:00,
2013-05-12 03:54:00,70.3,65.2,29.98,SSW,203,0.0,0.0,84,0.00,,,0.00,Wunderground v.1.15,2013-05-12 07:54:00,
2013-05-12 03:55:00,70.3,65.2,29.97,SSW,203,0.0,0.0,84,0.00,,,0.00,Wunderground v.1.15,2013-05-12 07:55:00,
2013-05-12 03:57:00,70.3,65.6,29.97,SSW,203,0.0,0.0,85,0.00,,,0.00,Wunderground v.1.15,2013-05-12 07:57:00,
2013-05-12 03:58:00,70.3,65.6,29.97,SSW,203,0.0,0.0,85,0.00,,,0.00,Wunderground v.1.15,2013-05-12 07:58:00,
2013-05-12 03:59:00,70.3,65.6,29.97,SSW,203,0.0,0.0,85,0.00,,,0.00,Wunderground v.1.15,2013-05-12 07:59:00,
2013-05-12 04:00:00,70.3,65.6,29.97,SSW,203,0.0,0.0,85,0.00,,,0.00,Wunderground v.1.15,2013-05-12 08:00:00,
2013-05-12 04:02:00,70.1,65.4,29.97,SSW,203,0.0,0.0,85,0.00,,,0.00,Wunderground v.1.15,2013-05-12 08:02:00,
2013-05-12 04:03:00,70.1,65.4,29.97,SSW,203,0.0,0.0,85,0.00,,,0.00,Wunderground v.1.15,2013-05-12 08:03:00,
2013-05-12 04:04:00,70.1,65.4,29.97,SSW,203,0.0,0.0,85,0.00,,,0.00,Wunderground v.1.15,2013-05-12 08:04:00,
2013-05-12 04:05:00,69.9,65.2,29.97,SSW,203,0.0,0.0,85,0.00,,,0.00,Wunderground v.1.15,2013-05-12 08:05:00,
2013-05-12 04:07:00,69.8,65.1,29.97,SSW,203,0.0,0.0,85,0.00,,,0.00,Wunderground v.1.15,2013-05-12 08:07:00,
2013-05-12 04:08:00,69.6,64.9,29.97,SSW,203,0.0,0.0,85,0.00,,,0.00,Wunderground v.1.15,2013-05-12 08:08:00,
2013-05-12 04:09:00,69.6,64.9,29.97,SSW,203,0.0,0.0,85,0.00,,,0.00,Wunderground v.1.15,2013-05-12 08:09:00,
2013-05-12 04:10:00,69.6,64.9,29.97,SSW,203,0.0,0.0,85,0.00,,,0.00,Wunderground v.1.15,2013-05-12 08:10:00,
2013-05-12 04:11:00,69.4,64.7,29.97,SSW,203,0.0,0.0,85,0.00,,,0.00,Wunderground v.1.15,2013-05-12 08:11:00,
2013-05-12 04:12:00,69.4,64.7,29.97,SSW,203,0.0,0.0,85,0.00,,,0.00,Wunderground v.1.15,2013-05-12 08:12:00,
2013-05-12 04:14:00,69.3,64.9,29.97,SSW,203,0.0,0.0,86,0.00,,,0.00,Wunderground v.1.15,2013-05-12 08:14:00,
2013-05-12 04:16:00,69.1,64.7,29.97,SSW,203,0.0,0.0,86,0.00,,,0.00,Wunderground v.1.15,2013-05-12 08:16:00,
2013-05-12 04:17:00,68.9,64.5,29.97,SSW,203,0.0,0.0,86,0.00,,,0.00,Wunderground v.1.15,2013-05-12 08:17:00,
2013-05-12 04:19:00,68.9,64.9,29.97,SSW,203,0.0,0.0,87,0.00,,,0.00,Wunderground v.1.15,2013-05-12 08:19:00,
2013-05-12 04:20:00,68.8,64.8,29.97,SSW,203,0.0,0.0,87,0.00,,,0.00,Wunderground v.1.15,2013-05-12 08:20:00,
2013-05-12 04:21:00,68.8,64.8,29.96,SSW,203,0.0,0.0,87,0.00,,,0.00,Wunderground v.1.15,2013-05-12 08:21:00,
2013-05-12 04:22:00,68.8,64.8,29.96,SSW,203,0.0,0.0,87,0.00,,,0.00,Wunderground v.1.15,2013-05-12 08:22:00,
2013-05-12 04:23:00,68.6,64.6,29.96,SSW,203,0.0,0.0,87,0.00,,,0.00,Wunderground v.1.15,2013-05-12 08:23:00,
2013-05-12 04:24:00,68.6,64.6,29.96,SSW,203,0.0,0.0,87,0.00,,,0.00,Wunderground v.1.15,2013-05-12 08:24:00,
2013-05-12 04:26:00,68.6,64.9,29.97,SSW,203,0.0,0.0,88,0.00,,,0.00,Wunderground v.1.15,2013-05-12 08:26:00,
2013-05-12 04:27:00,68.6,64.9,29.97,SSW,203,0.0,0.0,88,0.00,,,0.00,Wunderground v.1.15,2013-05-12 08:27:00,
2013-05-12 04:28:00,68.6,64.9,29.97,SSW,203,0.0,0.0,88,0.00,,,0.00,Wunderground v.1.15,2013-05-12 08:28:00,
2013-05-12 04:29:00,68.4,64.7,29.97,SSW,203,0.0,0.0,88,0.00,,,0.00,Wunderground v.1.15,2013-05-12 08:29:00,
2013-05-12 04:31:00,68.4,64.7,29.97,SSW,203,0.0,0.0,88,0.00,,,0.00,Wunderground v.1.15,2013-05-12 08:31:00,
2013-05-12 04:32:00,68.4,64.7,29.97,SSW,203,0.0,0.0,88,0.00,,,0.00,Wunderground v.1.15,2013-05-12 08:32:00,
2013-05-12 04:33:00,68.4,64.7,29.97,SSW,203,0.0,0.0,88,0.00,,,0.00,Wunderground v.1.15,2013-05-12 08:33:00,
2013-05-12 04:35:00,68.3,64.9,29.97,SSW,203,0.0,0.0,89,0.00,,,0.00,Wunderground v.1.15,2013-05-12 08:35:00,
2013-05-12 04:36:00,68.3,64.9,29.97,SSW,203,0.0,0.0,89,0.00,,,0.00,Wunderground v.1.15,2013-05-12 08:36:00,
2013-05-12 04:37:00,68.3,64.9,29.97,SSW,203,0.0,0.0,89,0.00,,,0.00,Wunderground v.1.15,2013-05-12 08:37:00,
2013-05-12 04:39:00,68.1,64.7,29.97,SSW,203,0.0,0.0,89,0.00,,,0.00,Wunderground v.1.15,2013-05-12 08:39:00,
2013-05-12 04:40:00,68.1,64.7,29.97,SSW,203,0.0,0.0,89,0.00,,,0.00,Wunderground v.1.15,2013-05-12 08:40:00,
2013-05-12 04:41:00,68.1,64.7,29.97,SSW,203,0.0,0.0,89,0.00,,,0.00,Wunderground v.1.15,2013-05-12 08:41:00,
2013-05-12 04:42:00,68.1,65.1,29.97,SSW,203,0.0,0.0,90,0.00,,,0.00,Wunderground v.1.15,2013-05-12 08:42:00,
2013-05-12 04:44:00,68.1,65.1,29.97,SSW,203,0.0,0.0,90,0.00,,,0.00,Wunderground v.1.15,2013-05-12 08:44:00,
2013-05-12 04:45:00,68.1,65.1,29.97,SSW,203,0.0,0.0,90,0.00,,,0.00,Wunderground v.1.15,2013-05-12 08:45:00,
2013-05-12 04:46:00,68.1,65.1,29.97,SSW,203,0.0,0.0,90,0.00,,,0.00,Wunderground v.1.15,2013-05-12 08:46:00,
2013-05-12 04:48:00,68.1,65.1,29.98,SSW,203,0.0,0.0,90,0.00,,,0.00,Wunderground v.1.15,2013-05-12 08:48:00,
2013-05-12 04:49:00,68.1,65.1,29.98,SSW,203,0.0,0.0,90,0.00,,,0.00,Wunderground v.1.15,2013-05-12 08:49:00,
2013-05-12 04:50:00,68.1,65.1,29.98,SSW,203,0.0,0.0,90,0.00,,,0.00,Wunderground v.1.15,2013-05-12 08:50:00,
2013-05-12 04:51:00,67.9,64.9,29.98,SSW,203,0.0,0.0,90,0.00,,,0.00,Wunderground v.1.15,2013-05-12 08:51:00,
2013-05-12 04:53:00,67.9,64.9,29.98,SSW,203,0.0,0.0,90,0.00,,,0.00,Wunderground v.1.15,2013-05-12 08:53:00,
2013-05-12 04:54:00,67.9,65.2,29.98,SSW,203,0.0,0.0,91,0.00,,,0.00,Wunderground v.1.15,2013-05-12 08:54:00,
2013-05-12 04:55:00,67.9,65.2,29.98,SSW,203,0.0,0.0,91,0.00,,,0.00,Wunderground v.1.15,2013-05-12 08:55:00,
2013-05-12 04:56:00,67.9,65.2,29.98,SSW,203,0.0,0.0,91,0.00,,,0.00,Wunderground v.1.15,2013-05-12 08:56:00,
2013-05-12 04:58:00,67.9,65.2,29.98,SSW,203,0.0,0.0,91,0.00,,,0.00,Wunderground v.1.15,2013-05-12 08:58:00,
2013-05-12 04:59:00,67.8,65.1,29.98,SSW,203,0.0,0.0,91,0.00,,,0.00,Wunderground v.1.15,2013-05-12 08:59:00,
2013-05-12 05:00:00,67.8,65.1,29.98,SSW,203,0.0,0.0,91,0.00,,,0.00,Wunderground v.1.15,2013-05-12 09:00:00,
2013-05-12 05:02:00,67.6,64.9,29.98,SSW,203,0.0,0.0,91,0.00,,,0.00,Wunderground v.1.15,2013-05-12 09:02:00,
2013-05-12 05:04:00,67.6,64.9,29.98,SSW,203,0.0,0.0,91,0.00,,,0.00,Wunderground v.1.15,2013-05-12 09:04:00,
2013-05-12 05:05:00,67.6,64.9,29.98,SSW,203,0.0,0.0,91,0.00,,,0.00,Wunderground v.1.15,2013-05-12 09:05:00,
2013-05-12 05:07:00,67.6,65.2,29.99,SSW,203,0.0,0.0,92,0.00,,,0.00,Wunderground v.1.15,2013-05-12 09:07:00,
2013-05-12 05:09:00,67.6,65.2,29.99,SSW,203,0.0,0.0,92,0.00,,,0.00,Wunderground v.1.15,2013-05-12 09:09:00,
2013-05-12 05:10:00,67.6,65.2,29.99,SSW,203,0.0,0.0,92,0.00,,,0.00,Wunderground v.1.15,2013-05-12 09:10:00,
2013-05-12 05:12:00,67.6,65.2,29.99,SSW,203,0.0,0.0,92,0.00,,,0.00,Wunderground v.1.15,2013-05-12 09:12:00,
2013-05-12 05:14:00,67.6,65.2,29.99,SSW,203,0.0,0.0,92,0.00,,,0.00,Wunderground v.1.15,2013-05-12 09:14:00,
2013-05-12 05:15:00,67.6,65.2,29.99,SSW,203,0.0,0.0,92,0.00,,,0.00,Wunderground v.1.15,2013-05-12 09:15:00,
2013-05-12 05:17:00,67.6,65.2,29.98,SSW,203,0.0,0.0,92,0.00,,,0.00,Wunderground v.1.15,2013-05-12 09:17:00,
2013-05-12 05:18:00,67.6,65.2,29.98,SSW,203,0.0,0.0,92,0.00,,,0.00,Wunderground v.1.15,2013-05-12 09:18:00,
2013-05-12 05:19:00,67.6,65.2,29.98,SSW,203,0.0,0.0,92,0.00,,,0.00,Wunderground v.1.15,2013-05-12 09:19:00,
2013-05-12 05:20:00,67.6,65.2,29.98,SSW,203,0.0,0.0,92,0.00,,,0.00,Wunderground v.1.15,2013-05-12 09:20:00,
2013-05-12 05:21:00,67.4,65.0,29.98,SSW,203,0.0,0.0,92,0.00,,,0.00,Wunderground v.1.15,2013-05-12 09:21:00,
2013-05-12 05:22:00,67.4,65.0,29.98,SSW,203,0.0,0.0,92,0.00,,,0.00,Wunderground v.1.15,2013-05-12 09:22:00,
2013-05-12 05:23:00,67.4,65.0,29.98,SSW,203,0.0,0.0,92,0.00,,,0.00,Wunderground v.1.15,2013-05-12 09:23:00,
2013-05-12 05:25:00,67.4,65.0,29.98,SSW,203,0.0,0.0,92,0.00,,,0.00,Wunderground v.1.15,2013-05-12 09:25:00,
2013-05-12 05:27:00,67.4,65.3,29.98,SSW,203,0.0,0.0,93,0.00,,,0.00,Wunderground v.1.15,2013-05-12 09:27:00,
2013-05-12 05:28:00,67.4,65.3,29.98,SSW,203,0.0,0.0,93,0.00,,,0.00,Wunderground v.1.15,2013-05-12 09:28:00,
2013-05-12 05:30:00,67.4,65.3,29.98,SSW,203,0.0,0.0,93,0.00,,,0.00,Wunderground v.1.15,2013-05-12 09:30:00,
2013-05-12 05:31:00,67.4,65.3,29.98,SSW,203,0.0,0.0,93,0.00,,,0.00,Wunderground v.1.15,2013-05-12 09:31:00,
2013-05-12 05:32:00,67.4,65.3,29.98,SSW,203,0.0,0.0,93,0.00,,,0.00,Wunderground v.1.15,2013-05-12 09:32:00,
2013-05-12 05:34:00,67.4,65.3,29.98,SSW,203,0.0,0.0,93,0.00,,,0.00,Wunderground v.1.15,2013-05-12 09:34:00,
2013-05-12 05:35:00,67.4,65.3,29.98,SSW,203,0.0,0.0,93,0.00,,,0.00,Wunderground v.1.15,2013-05-12 09:35:00,
2013-05-12 05:36:00,67.4,65.3,29.98,SSW,203,0.0,0.0,93,0.00,,,0.00,Wunderground v.1.15,2013-05-12 09:36:00,
2013-05-12 05:38:00,67.4,65.3,29.98,SSW,203,0.0,0.0,93,0.00,,,0.00,Wunderground v.1.15,2013-05-12 09:38:00,
2013-05-12 05:39:00,67.4,65.3,29.98,SSW,203,0.0,0.0,93,0.00,,,0.00,Wunderground v.1.15,2013-05-12 09:39:00,
2013-05-12 05:41:00,67.4,65.3,29.98,SSW,203,0.0,0.0,93,0.00,,,0.00,Wunderground v.1.15,2013-05-12 09:41:00,
2013-05-12 05:43:00,67.4,65.3,29.98,SSW,203,0.0,0.0,93,0.00,,,0.00,Wunderground v.1.15,2013-05-12 09:43:00,
2013-05-12 05:45:00,67.4,65.3,29.97,SSW,203,0.0,0.0,93,0.00,,,0.00,Wunderground v.1.15,2013-05-12 09:45:00,
2013-05-12 05:46:00,67.4,65.3,29.97,SSW,203,0.0,0.0,93,0.00,,,0.00,Wunderground v.1.15,2013-05-12 09:46:00,
2013-05-12 05:48:00,67.4,65.3,29.97,SSW,203,0.0,0.0,93,0.00,,,0.00,Wunderground v.1.15,2013-05-12 09:48:00,
2013-05-12 05:50:00,67.4,65.3,29.97,SSW,203,0.0,0.0,93,0.00,,,0.00,Wunderground v.1.15,2013-05-12 09:50:00,
2013-05-12 05:51:00,67.4,65.3,29.97,SSW,203,0.0,0.0,93,0.00,,,0.00,Wunderground v.1.15,2013-05-12 09:51:00,
2013-05-12 05:53:00,67.4,65.3,29.97,SSW,203,0.0,0.0,93,0.00,,,0.00,Wunderground v.1.15,2013-05-12 09:53:00,
2013-05-12 05:55:00,67.3,65.2,29.97,SSW,203,0.0,0.0,93,0.00,,,0.00,Wunderground v.1.15,2013-05-12 09:55:00,
2013-05-12 05:56:00,67.3,65.2,29.97,SSW,203,0.0,0.0,93,0.00,,,0.00,Wunderground v.1.15,2013-05-12 09:56:00,
2013-05-12 05:58:00,67.3,65.2,29.97,SSW,203,0.0,0.0,93,0.00,,,0.00,Wunderground v.1.15,2013-05-12 09:58:00,
2013-05-12 06:00:00,67.3,65.5,29.98,SSW,203,0.0,0.0,94,0.00,,,0.00,Wunderground v.1.15,2013-05-12 10:00:00,
2013-05-12 06:02:00,67.3,65.2,29.98,SSW,203,0.0,0.0,93,0.00,,,0.00,Wunderground v.1.15,2013-05-12 10:02:00,
2013-05-12 06:03:00,67.3,65.2,29.98,SSW,203,0.0,0.0,93,0.00,,,0.00,Wunderground v.1.15,2013-05-12 10:03:00,
2013-05-12 06:06:00,67.1,65.3,29.98,SSW,203,0.0,0.0,94,0.00,,,0.00,Wunderground v.1.15,2013-05-12 10:06:00,
2013-05-12 06:07:00,67.1,65.3,29.98,SSW,203,0.0,0.0,94,0.00,,,0.00,Wunderground v.1.15,2013-05-12 10:07:00,
2013-05-12 06:09:00,67.1,65.3,29.98,SSW,203,0.0,0.0,94,0.00,,,0.00,Wunderground v.1.15,2013-05-12 10:09:00,
2013-05-12 06:11:00,67.1,65.3,29.98,SSW,203,0.0,0.0,94,0.00,,,0.00,Wunderground v.1.15,2013-05-12 10:11:00,
2013-05-12 06:12:00,67.1,65.3,29.98,SSW,203,0.0,0.0,94,0.00,,,0.00,Wunderground v.1.15,2013-05-12 10:12:00,
2013-05-12 06:13:00,67.1,65.3,29.97,SSW,203,0.0,0.0,94,0.00,,,0.00,Wunderground v.1.15,2013-05-12 10:13:00,
2013-05-12 06:14:00,67.1,65.3,29.98,SSW,203,0.0,0.0,94,0.00,,,0.00,Wunderground v.1.15,2013-05-12 10:14:00,
2013-05-12 06:16:00,67.3,65.5,29.98,SSW,203,0.0,0.0,94,0.00,,,0.00,Wunderground v.1.15,2013-05-12 10:16:00,
2013-05-12 06:18:00,67.3,65.5,29.98,SSW,203,0.0,0.0,94,0.00,,,0.00,Wunderground v.1.15,2013-05-12 10:18:00,
2013-05-12 06:19:00,67.3,65.5,29.98,SSW,203,0.0,0.0,94,0.00,,,0.00,Wunderground v.1.15,2013-05-12 10:19:00,
2013-05-12 06:21:00,67.1,65.3,29.98,SSW,203,0.0,0.0,94,0.00,,,0.00,Wunderground v.1.15,2013-05-12 10:21:00,
2013-05-12 06:23:00,67.1,65.3,29.98,SSW,203,0.0,0.0,94,0.00,,,0.00,Wunderground v.1.15,2013-05-12 10:23:00,
2013-05-12 06:24:00,67.1,65.3,29.98,SSW,203,0.0,0.0,94,0.00,,,0.00,Wunderground v.1.15,2013-05-12 10:24:00,
2013-05-12 06:26:00,66.9,65.1,29.98,SSW,203,0.0,0.0,94,0.00,,,0.00,Wunderground v.1.15,2013-05-12 10:26:00,
2013-05-12 06:28:00,66.9,65.1,29.98,SSW,203,0.0,0.0,94,0.00,,,0.00,Wunderground v.1.15,2013-05-12 10:28:00,
2013-05-12 06:29:00,66.9,65.1,29.98,SSW,203,0.0,0.0,94,0.00,,,0.00,Wunderground v.1.15,2013-05-12 10:29:00,
2013-05-12 06:31:00,66.9,65.1,29.99,SSW,203,0.0,0.0,94,0.00,,,0.00,Wunderground v.1.15,2013-05-12 10:31:00,
2013-05-12 06:33:00,66.9,65.1,29.99,SSW,203,0.0,0.0,94,0.00,,,0.00,Wunderground v.1.15,2013-05-12 10:33:00,
2013-05-12 06:34:00,66.9,65.1,29.99,SSW,203,0.0,0.0,94,0.00,,,0.00,Wunderground v.1.15,2013-05-12 10:34:00,
2013-05-12 06:35:00,66.9,65.1,29.99,SSW,203,0.0,0.0,94,0.00,,,0.00,Wunderground v.1.15,2013-05-12 10:35:00,
2013-05-12 06:37:00,66.9,65.1,29.99,SSW,203,0.0,0.0,94,0.00,,,0.00,Wunderground v.1.15,2013-05-12 10:37:00,
2013-05-12 06:39:00,67.1,65.6,29.99,SSW,203,0.0,0.0,95,0.00,,,0.00,Wunderground v.1.15,2013-05-12 10:39:00,
2013-05-12 06:40:00,67.1,65.6,29.99,SSW,203,0.0,0.0,95,0.00,,,0.00,Wunderground v.1.15,2013-05-12 10:40:00,
2013-05-12 06:42:00,67.1,65.6,30.00,SSW,203,0.0,0.0,95,0.00,,,0.00,Wunderground v.1.15,2013-05-12 10:42:00,
2013-05-12 06:44:00,67.1,65.6,30.00,SSW,203,0.0,0.0,95,0.00,,,0.00,Wunderground v.1.15,2013-05-12 10:44:00,
2013-05-12 06:45:00,67.1,65.6,30.00,SSW,203,0.0,0.0,95,0.00,,,0.00,Wunderground v.1.15,2013-05-12 10:45:00,
2013-05-12 06:47:00,67.3,65.8,30.00,SSW,203,0.0,0.0,95,0.00,,,0.00,Wunderground v.1.15,2013-05-12 10:47:00,
2013-05-12 06:49:00,67.3,65.8,30.00,SSW,203,0.0,0.0,95,0.00,,,0.00,Wunderground v.1.15,2013-05-12 10:49:00,
2013-05-12 06:50:00,67.3,65.8,29.99,SSW,203,0.0,0.0,95,0.00,,,0.00,Wunderground v.1.15,2013-05-12 10:50:00,
2013-05-12 06:52:00,67.4,65.9,30.00,SSW,203,0.0,0.0,95,0.00,,,0.00,Wunderground v.1.15,2013-05-12 10:52:00,
2013-05-12 06:54:00,67.4,65.9,30.00,SSW,203,0.0,0.0,95,0.00,,,0.00,Wunderground v.1.15,2013-05-12 10:54:00,
2013-05-12 06:55:00,67.4,65.9,30.00,SSW,203,0.0,0.0,95,0.00,,,0.00,Wunderground v.1.15,2013-05-12 10:55:00,
2013-05-12 06:56:00,67.6,66.1,30.00,SSW,203,0.0,0.0,95,0.00,,,0.00,Wunderground v.1.15,2013-05-12 10:56:00,
2013-05-12 06:57:00,67.6,66.1,30.00,SSW,203,0.0,0.0,95,0.00,,,0.00,Wunderground v.1.15,2013-05-12 10:57:00,
2013-05-12 06:59:00,67.6,66.1,30.00,SSW,203,0.0,0.0,95,0.00,,,0.00,Wunderground v.1.15,2013-05-12 10:59:00,
2013-05-12 07:00:00,67.6,66.1,30.00,SSW,203,0.0,0.0,95,0.00,,,0.00,Wunderground v.1.15,2013-05-12 11:00:00,
2013-05-12 07:01:00,67.6,66.1,30.00,SSW,203,0.0,0.0,95,0.00,,,0.00,Wunderground v.1.15,2013-05-12 11:01:00,
2013-05-12 07:03:00,67.6,66.1,30.01,SSW,203,0.0,0.0,95,0.00,,,0.00,Wunderground v.1.15,2013-05-12 11:03:00,
2013-05-12 07:05:00,67.6,66.1,30.01,SSW,203,0.0,0.0,95,0.00,,,0.00,Wunderground v.1.15,2013-05-12 11:05:00,
2013-05-12 07:06:00,67.6,66.1,30.01,SSW,203,0.0,0.0,95,0.00,,,0.00,Wunderground v.1.15,2013-05-12 11:06:00,
2013-05-12 07:08:00,67.6,66.1,30.01,SSW,203,0.0,0.0,95,0.00,,,0.00,Wunderground v.1.15,2013-05-12 11:08:00,
2013-05-12 07:10:00,67.6,66.1,30.02,SSW,203,0.0,0.0,95,0.00,,,0.00,Wunderground v.1.15,2013-05-12 11:10:00,
2013-05-12 07:11:00,67.6,66.1,30.02,SSW,203,0.0,0.0,95,0.00,,,0.00,Wunderground v.1.15,2013-05-12 11:11:00,
2013-05-12 07:14:00,67.6,66.1,30.02,SSW,203,0.0,0.0,95,0.00,,,0.00,Wunderground v.1.15,2013-05-12 11:14:00,
2013-05-12 07:15:00,67.8,66.3,30.02,SSW,203,0.0,0.0,95,0.00,,,0.00,Wunderground v.1.15,2013-05-12 11:15:00,
2013-05-12 07:16:00,67.8,66.3,30.02,SSW,203,0.0,0.0,95,0.00,,,0.00,Wunderground v.1.15,2013-05-12 11:16:00,
2013-05-12 07:17:00,67.8,66.3,30.02,SSW,203,0.0,0.0,95,0.00,,,0.00,Wunderground v.1.15,2013-05-12 11:17:00,
2013-05-12 07:20:00,67.9,66.4,30.02,SSW,203,0.0,0.0,95,0.00,,,0.00,Wunderground v.1.15,2013-05-12 11:20:00,
2013-05-12 07:21:00,67.9,66.4,30.02,SSW,203,0.0,0.0,95,0.00,,,0.00,Wunderground v.1.15,2013-05-12 11:21:00,
2013-05-12 07:22:00,67.9,66.4,30.02,SSW,203,0.0,0.0,95,0.00,,,0.00,Wunderground v.1.15,2013-05-12 11:22:00,
2013-05-12 07:25:00,68.3,66.8,30.02,SSW,203,0.0,0.0,95,0.00,,,0.00,Wunderground v.1.15,2013-05-12 11:25:00,
2013-05-12 07:26:00,68.4,66.9,30.02,SSW,203,0.0,0.0,95,0.00,,,0.00,Wunderground v.1.15,2013-05-12 11:26:00,
2013-05-12 07:27:00,68.4,66.9,30.02,SSW,203,0.0,0.0,95,0.00,,,0.00,Wunderground v.1.15,2013-05-12 11:27:00,
2013-05-12 07:31:00,68.6,67.1,30.02,SSW,203,0.0,0.0,95,0.00,,,0.00,Wunderground v.1.15,2013-05-12 11:31:00,
2013-05-12 07:32:00,68.6,67.1,30.02,SSW,203,0.0,0.0,95,0.00,,,0.00,Wunderground v.1.15,2013-05-12 11:32:00,
2013-05-12 07:36:00,68.9,67.4,30.03,SSW,207,0.0,0.0,95,0.00,,,0.00,Wunderground v.1.15,2013-05-12 11:36:00,
2013-05-12 07:37:00,68.9,67.4,30.03,SSW,207,0.0,0.0,95,0.00,,,0.00,Wunderground v.1.15,2013-05-12 11:37:00,
2013-05-12 07:38:00,68.9,67.4,30.02,SSW,207,0.0,0.0,95,0.00,,,0.00,Wunderground v.1.15,2013-05-12 11:38:00,
2013-05-12 07:41:00,69.3,67.8,30.02,SSW,207,0.0,1.0,95,0.00,,,0.00,Wunderground v.1.15,2013-05-12 11:41:00,
2013-05-12 07:42:00,69.3,67.8,30.02,SSW,207,0.0,1.0,95,0.00,,,0.00,Wunderground v.1.15,2013-05-12 11:42:00,
2013-05-12 07:43:00,69.4,67.9,30.02,SSW,207,0.0,1.0,95,0.00,,,0.00,Wunderground v.1.15,2013-05-12 11:43:00,
2013-05-12 07:47:00,69.6,68.1,30.02,SSW,207,0.0,1.0,95,0.00,,,0.00,Wunderground v.1.15,2013-05-12 11:47:00,
2013-05-12 07:48:00,69.8,68.3,30.03,SSW,207,0.0,1.0,95,0.00,,,0.00,Wunderground v.1.15,2013-05-12 11:48:00,
2013-05-12 07:52:00,70.4,68.9,30.03,SSW,207,0.0,1.0,95,0.00,,,0.00,Wunderground v.1.15,2013-05-12 11:52:00,
2013-05-12 07:53:00,70.4,68.9,30.03,SSW,207,0.0,1.0,95,0.00,,,0.00,Wunderground v.1.15,2013-05-12 11:53:00,
2013-05-12 07:54:00,70.6,69.1,30.03,SSW,207,0.0,1.0,95,0.00,,,0.00,Wunderground v.1.15,2013-05-12 11:54:00,
2013-05-12 07:57:00,70.8,69.3,30.02,SSW,207,0.0,1.0,95,0.00,,,0.00,Wunderground v.1.15,2013-05-12 11:57:00,
2013-05-12 07:58:00,70.8,69.3,30.02,SSW,207,0.0,1.0,95,0.00,,,0.00,Wunderground v.1.15,2013-05-12 11:58:00,
2013-05-12 07:59:00,70.9,69.4,30.02,SSW,207,0.0,1.0,95,0.00,,,0.00,Wunderground v.1.15,2013-05-12 11:59:00,
2013-05-12 08:02:00,71.3,69.8,30.02,South,189,3.0,3.0,95,0.00,,,0.00,Wunderground v.1.15,2013-05-12 12:02:00,
2013-05-12 08:03:00,71.5,70.0,30.02,SW,225,2.0,4.0,95,0.00,,,0.00,Wunderground v.1.15,2013-05-12 12:03:00,
2013-05-12 08:04:00,71.5,70.0,30.02,West,281,5.0,5.0,95,0.00,,,0.00,Wunderground v.1.15,2013-05-12 12:04:00,
2013-05-12 08:08:00,72.0,70.5,30.03,West,281,0.0,5.0,95,0.00,,,0.00,Wunderground v.1.15,2013-05-12 12:08:00,
2013-05-12 08:09:00,72.0,70.5,30.03,West,281,2.0,5.0,95,0.00,,,0.00,Wunderground v.1.15,2013-05-12 12:09:00,
2013-05-12 08:13:00,72.5,71.0,30.03,West,275,5.0,9.0,95,0.00,,,0.00,Wunderground v.1.15,2013-05-12 12:13:00,
2013-05-12 08:14:00,72.5,71.0,30.02,West,278,0.0,9.0,95,0.00,,,0.00,Wunderground v.1.15,2013-05-12 12:14:00,
2013-05-12 08:15:00,72.7,71.2,30.02,West,278,0.0,9.0,95,0.00,,,0.00,Wunderground v.1.15,2013-05-12 12:15:00,
2013-05-12 08:18:00,73.0,71.2,30.03,WSW,242,0.0,9.0,94,0.00,,,0.00,Wunderground v.1.15,2013-05-12 12:18:00,
2013-05-12 08:19:00,73.0,71.2,30.02,WSW,242,0.0,9.0,94,0.00,,,0.00,Wunderground v.1.15,2013-05-12 12:19:00,
2013-05-12 08:20:00,73.0,71.2,30.03,WSW,242,0.0,1.0,94,0.00,,,0.00,Wunderground v.1.15,2013-05-12 12:20:00,
2013-05-12 08:23:00,73.3,71.2,30.02,West,267,0.0,4.0,93,0.00,,,0.00,Wunderground v.1.15,2013-05-12 12:23:00,
2013-05-12 08:25:00,73.5,71.4,30.02,WNW,285,0.0,4.0,93,0.00,,,0.00,Wunderground v.1.15,2013-05-12 12:25:00,
2013-05-12 08:28:00,73.9,71.7,30.03,SW,227,0.0,5.0,93,0.00,,,0.00,Wunderground v.1.15,2013-05-12 12:28:00,
2013-05-12 08:30:00,73.9,71.4,30.03,WNW,284,0.0,2.0,92,0.00,,,0.00,Wunderground v.1.15,2013-05-12 12:30:00,
2013-05-12 08:31:00,74.0,71.5,30.03,West,267,2.0,2.0,92,0.00,,,0.00,Wunderground v.1.15,2013-05-12 12:31:00,
2013-05-12 08:33:00,74.4,71.9,30.03,West,265,0.0,2.0,92,0.00,,,0.00,Wunderground v.1.15,2013-05-12 12:33:00,
2013-05-12 08:35:00,74.6,72.1,30.03,NW,309,0.0,4.0,92,0.00,,,0.00,Wunderground v.1.15,2013-05-12 12:35:00,
2013-05-12 08:36:00,74.7,71.9,30.03,NW,309,0.0,4.0,91,0.00,,,0.00,Wunderground v.1.15,2013-05-12 12:36:00,
2013-05-12 08:38:00,75.1,72.3,30.03,SW,229,0.0,5.0,91,0.00,,,0.00,Wunderground v.1.15,2013-05-12 12:38:00,
2013-05-12 08:40:00,75.3,72.2,30.03,WSW,240,5.0,6.0,90,0.00,,,0.00,Wunderground v.1.15,2013-05-12 12:40:00,
2013-05-12 08:41:00,75.3,72.2,30.03,WSW,238,1.0,6.0,90,0.00,,,0.00,Wunderground v.1.15,2013-05-12 12:41:00,
2013-05-12 08:43:00,75.3,72.2,30.03,SSW,192,3.0,6.0,90,0.00,,,0.00,Wunderground v.1.15,2013-05-12 12:43:00,
2013-05-12 08:44:00,75.3,71.8,30.03,WSW,240,1.0,6.0,89,0.00,,,0.00,Wunderground v.1.15,2013-05-12 12:44:00,
2013-05-12 08:46:00,75.4,71.9,30.03,SSW,202,1.0,7.0,89,0.00,,,0.00,Wunderground v.1.15,2013-05-12 12:46:00,
2013-05-12 08:47:00,75.4,71.9,30.03,South,182,1.0,7.0,89,0.00,,,0.00,Wunderground v.1.15,2013-05-12 12:47:00,
2013-05-12 08:48:00,75.6,72.1,30.03,SSW,199,0.0,7.0,89,0.00,,,0.00,Wunderground v.1.15,2013-05-12 12:48:00,
2013-05-12 08:49:00,75.8,72.3,30.03,WNW,284,1.0,7.0,89,0.00,,,0.00,Wunderground v.1.15,2013-05-12 12:49:00,
2013-05-12 08:51:00,76.0,72.2,30.03,SW,228,7.0,7.0,88,0.00,,,0.00,Wunderground v.1.15,2013-05-12 12:51:00,
2013-05-12 08:52:00,76.0,72.2,30.03,SSW,207,2.0,7.0,88,0.00,,,0.00,Wunderground v.1.15,2013-05-12 12:52:00,
2013-05-12 08:53:00,76.0,71.8,30.03,SW,229,5.0,7.0,87,0.00,,,0.00,Wunderground v.1.15,2013-05-12 12:53:00,
2013-05-12 08:55:00,76.1,71.9,30.03,SSE,153,4.0,7.0,87,0.00,,,0.00,Wunderground v.1.15,2013-05-12 12:55:00,
2013-05-12 08:56:00,76.1,71.9,30.03,SW,225,4.0,9.0,87,0.00,,,0.00,Wunderground v.1.15,2013-05-12 12:56:00,
2013-05-12 08:57:00,76.1,71.6,30.03,SSW,203,5.0,9.0,86,0.00,,,0.00,Wunderground v.1.15,2013-05-12 12:57:00,
2013-05-12 08:59:00,76.3,71.8,30.03,SW,234,5.0,9.0,86,0.00,,,0.00,Wunderground v.1.15,2013-05-12 12:59:00,
2013-05-12 09:00:00,76.3,71.5,30.03,WSW,239,0.0,2.0,85,0.00,,,0.00,Wunderground v.1.15,2013-05-12 13:00:00,
2013-05-12 09:02:00,76.5,71.7,30.03,SW,216,4.0,6.0,85,0.00,,,0.00,Wunderground v.1.15,2013-05-12 13:02:00,
2013-05-12 09:04:00,76.5,71.3,30.03,SW,233,5.0,7.0,84,0.00,,,0.00,Wunderground v.1.15,2013-05-12 13:04:00,
2013-05-12 09:05:00,76.7,71.5,30.03,WSW,241,3.0,7.0,84,0.00,,,0.00,Wunderground v.1.15,2013-05-12 13:05:00,
2013-05-12 09:07:00,76.8,71.6,30.03,West,265,0.0,7.0,84,0.00,,,0.00,Wunderground v.1.15,2013-05-12 13:07:00,
2013-05-12 09:08:00,77.0,71.8,30.03,SW,225,5.0,7.0,84,0.00,,,0.00,Wunderground v.1.15,2013-05-12 13:08:00,
2013-05-12 09:09:00,77.2,71.6,30.03,SW,233,1.0,7.0,83,0.00,,,0.00,Wunderground v.1.15,2013-05-12 13:09:00,
2013-05-12 09:12:00,77.6,71.7,30.03,WNW,300,1.0,2.0,82,0.00,,,0.00,Wunderground v.1.15,2013-05-12 13:12:00,
2013-05-12 09:13:00,77.7,71.8,30.03,WNW,302,0.0,2.0,82,0.00,,,0.00,Wunderground v.1.15,2013-05-12 13:13:00,
2013-05-12 09:15:00,77.9,71.6,30.03,WSW,254,0.0,2.0,81,0.00,,,0.00,Wunderground v.1.15,2013-05-12 13:15:00,
2013-05-12 09:17:00,78.1,71.4,30.03,WNW,290,5.0,6.0,80,0.00,,,0.00,Wunderground v.1.15,2013-05-12 13:17:00,
2013-05-12 09:18:00,78.3,71.2,30.03,SW,219,4.0,6.0,79,0.00,,,0.00,Wunderground v.1.15,2013-05-12 13:18:00,
2013-05-12 09:20:00,78.3,71.2,30.03,WSW,254,3.0,4.0,79,0.00,,,0.00,Wunderground v.1.15,2013-05-12 13:20:00,
2013-05-12 09:22:00,78.6,71.5,30.03,West,275,0.0,5.0,79,0.00,,,0.00,Wunderground v.1.15,2013-05-12 13:22:00,
2013-05-12 09:23:00,78.6,71.5,30.03,West,275,1.0,5.0,79,0.00,,,0.00,Wunderground v.1.15,2013-05-12 13:23:00,
2013-05-12 09:24:00,78.8,71.4,30.03,West,259,7.0,7.0,78,0.00,,,0.00,Wunderground v.1.15,2013-05-12 13:24:00,
2013-05-12 09:25:00,78.8,71.0,30.03,West,272,6.0,8.0,77,0.00,,,0.00,Wunderground v.1.15,2013-05-12 13:25:00,
2013-05-12 09:27:00,78.8,71.0,30.03,West,275,4.0,9.0,77,0.00,,,0.00,Wunderground v.1.15,2013-05-12 13:27:00,
2013-05-12 09:29:00,78.8,70.6,30.03,WNW,294,0.0,9.0,76,0.00,,,0.00,Wunderground v.1.15,2013-05-12 13:29:00,
2013-05-12 09:31:00,79.0,70.8,30.03,WSW,240,2.0,5.0,76,0.00,,,0.00,Wunderground v.1.15,2013-05-12 13:31:00,
2013-05-12 09:32:00,79.0,70.8,30.03,West,262,4.0,5.0,76,0.00,,,0.00,Wunderground v.1.15,2013-05-12 13:32:00,
2013-05-12 09:33:00,79.2,71.0,30.03,West,272,1.0,5.0,76,0.00,,,0.00,Wunderground v.1.15,2013-05-12 13:33:00,
2013-05-12 09:34:00,79.2,71.0,30.03,WSW,241,1.0,5.0,76,0.00,,,0.00,Wunderground v.1.15,2013-05-12 13:34:00,
2013-05-12 09:36:00,79.6,71.0,30.03,SW,234,0.0,5.0,75,0.00,,,0.00,Wunderground v.1.15,2013-05-12 13:36:00,
2013-05-12 09:38:00,79.8,71.2,30.04,WNW,302,1.0,5.0,75,0.00,,,0.00,Wunderground v.1.15,2013-05-12 13:38:00,
2013-05-12 09:39:00,79.8,70.8,30.04,West,259,3.0,6.0,74,0.00,,,0.00,Wunderground v.1.15,2013-05-12 13:39:00,
2013-05-12 09:40:00,79.9,70.5,30.03,West,266,4.0,6.0,73,0.00,,,0.00,Wunderground v.1.15,2013-05-12 13:40:00,
2013-05-12 09:41:00,79.9,70.5,30.03,WNW,288,1.0,6.0,73,0.00,,,0.00,Wunderground v.1.15,2013-05-12 13:41:00,
2013-05-12 09:43:00,80.1,70.7,30.03,WSW,257,5.0,7.0,73,0.00,,,0.00,Wunderground v.1.15,2013-05-12 13:43:00,
2013-05-12 09:45:00,80.3,70.4,30.03,WNW,294,6.0,7.0,72,0.00,,,0.00,Wunderground v.1.15,2013-05-12 13:45:00,
2013-05-12 09:47:00,80.3,70.4,30.03,WNW,291,0.0,8.0,72,0.00,,,0.00,Wunderground v.1.15,2013-05-12 13:47:00,
2013-05-12 09:48:00,80.5,70.6,30.03,WSW,240,6.0,8.0,72,0.00,,,0.00,Wunderground v.1.15,2013-05-12 13:48:00,
2013-05-12 09:50:00,80.7,70.4,30.03,West,281,4.0,7.0,71,0.00,,,0.00,Wunderground v.1.15,2013-05-12 13:50:00,
2013-05-12 09:52:00,80.9,70.6,30.03,NNW,329,3.0,7.0,71,0.00,,,0.00,Wunderground v.1.15,2013-05-12 13:52:00,
2013-05-12 09:53:00,80.9,70.2,30.03,North,355,1.0,8.0,70,0.00,,,0.00,Wunderground v.1.15,2013-05-12 13:53:00,
2013-05-12 09:54:00,80.9,70.2,30.03,West,261,4.0,8.0,70,0.00,,,0.00,Wunderground v.1.15,2013-05-12 13:54:00,
2013-05-12 09:55:00,81.1,70.0,30.03,NNW,333,0.0,8.0,69,0.00,,,0.00,Wunderground v.1.15,2013-05-12 13:55:00,
2013-05-12 09:56:00,81.1,70.0,30.03,WNW,287,5.0,8.0,69,0.00,,,0.00,Wunderground v.1.15,2013-05-12 13:56:00,
2013-05-12 09:57:00,81.2,70.1,30.03,SW,232,4.0,8.0,69,0.00,,,0.00,Wunderground v.1.15,2013-05-12 13:57:00,
2013-05-12 09:58:00,81.2,70.1,30.03,WNW,299,2.0,8.0,69,0.00,,,0.00,Wunderground v.1.15,2013-05-12 13:58:00,
2013-05-12 09:59:00,81.4,70.2,30.03,NW,313,2.0,8.0,69,0.00,,,0.00,Wunderground v.1.15,2013-05-12 13:59:00,
2013-05-12 10:00:00,81.4,70.2,30.03,WSW,248,0.0,5.0,69,0.00,,,0.00,Wunderground v.1.15,2013-05-12 14:00:00,
2013-05-12 10:02:00,81.6,70.0,30.04,SW,232,2.0,6.0,68,0.00,,,0.00,Wunderground v.1.15,2013-05-12 14:02:00,
2013-05-12 10:04:00,82.0,70.4,30.04,West,269,5.0,8.0,68,0.00,,,0.00,Wunderground v.1.15,2013-05-12 14:04:00,
2013-05-12 10:05:00,82.0,70.4,30.04,West,264,3.0,8.0,68,0.00,,,0.00,Wunderground v.1.15,2013-05-12 14:05:00,
2013-05-12 10:07:00,82.0,70.0,30.04,WNW,300,4.0,8.0,67,0.00,,,0.00,Wunderground v.1.15,2013-05-12 14:07:00,
2013-05-12 10:09:00,82.2,69.7,30.03,SSW,209,3.0,8.0,66,0.00,,,0.00,Wunderground v.1.15,2013-05-12 14:09:00,
2013-05-12 10:10:00,82.4,69.9,30.03,SW,221,6.0,7.0,66,0.00,,,0.00,Wunderground v.1.15,2013-05-12 14:10:00,
2013-05-12 10:12:00,82.4,69.4,30.03,West,280,1.0,8.0,65,0.00,,,0.00,Wunderground v.1.15,2013-05-12 14:12:00,
2013-05-12 10:13:00,82.4,69.4,30.03,SW,236,4.0,8.0,65,0.00,,,0.00,Wunderground v.1.15,2013-05-12 14:13:00,
2013-05-12 10:15:00,82.6,69.6,30.03,West,270,3.0,8.0,65,0.00,,,0.00,Wunderground v.1.15,2013-05-12 14:15:00,
2013-05-12 10:17:00,82.8,69.8,30.03,West,275,2.0,8.0,65,0.00,,,0.00,Wunderground v.1.15,2013-05-12 14:17:00,
2013-05-12 10:18:00,83.0,70.0,30.03,WNW,290,6.0,8.0,65,0.00,,,0.00,Wunderground v.1.15,2013-05-12 14:18:00,
2013-05-12 10:20:00,83.2,69.8,30.03,NNW,331,3.0,3.0,64,0.00,,,0.00,Wunderground v.1.15,2013-05-12 14:20:00,
2013-05-12 10:22:00,83.4,69.5,30.03,West,279,0.0,4.0,63,0.00,,,0.00,Wunderground v.1.15,2013-05-12 14:22:00,
2013-05-12 10:23:00,83.4,69.5,30.03,WNW,285,0.0,4.0,63,0.00,,,0.00,Wunderground v.1.15,2013-05-12 14:23:00,
2013-05-12 10:25:00,83.4,69.0,30.03,West,267,5.0,5.0,62,0.00,,,0.00,Wunderground v.1.15,2013-05-12 14:25:00,
2013-05-12 10:27:00,83.2,68.8,30.03,WSW,242,4.0,5.0,62,0.00,,,0.00,Wunderground v.1.15,2013-05-12 14:27:00,
2013-05-12 10:29:00,83.2,68.8,30.03,NNE,23,4.0,6.0,62,0.00,,,0.00,Wunderground v.1.15,2013-05-12 14:29:00,
2013-05-12 10:30:00,83.4,68.5,30.03,SW,227,1.0,7.0,61,0.00,,,0.00,Wunderground v.1.15,2013-05-12 14:30:00,
2013-05-12 10:31:00,83.4,68.5,30.03,West,279,4.0,7.0,61,0.00,,,0.00,Wunderground v.1.15,2013-05-12 14:31:00,
2013-05-12 10:32:00,83.4,68.5,30.03,WSW,238,2.0,7.0,61,0.00,,,0.00,Wunderground v.1.15,2013-05-12 14:32:00,
2013-05-12 10:34:00,83.6,68.7,30.03,SW,227,2.0,7.0,61,0.00,,,0.00,Wunderground v.1.15,2013-05-12 14:34:00,
2013-05-12 10:36:00,83.8,68.9,30.03,SW,217,1.0,7.0,61,0.00,,,0.00,Wunderground v.1.15,2013-05-12 14:36:00,
2013-05-12 10:37:00,83.8,68.4,30.03,WNW,286,4.0,7.0,60,0.00,,,0.00,Wunderground v.1.15,2013-05-12 14:37:00,
2013-05-12 10:39:00,84.0,68.6,30.03,West,279,0.0,7.0,60,0.00,,,0.00,Wunderground v.1.15,2013-05-12 14:39:00,
2013-05-12 10:40:00,84.1,68.7,30.03,West,279,0.0,7.0,60,0.00,,,0.00,Wunderground v.1.15,2013-05-12 14:40:00,
2013-05-12 10:41:00,84.1,68.7,30.03,SSW,210,4.0,5.0,60,0.00,,,0.00,Wunderground v.1.15,2013-05-12 14:41:00,
2013-05-12 10:43:00,84.3,68.9,30.03,West,267,1.0,7.0,60,0.00,,,0.00,Wunderground v.1.15,2013-05-12 14:43:00,
2013-05-12 10:45:00,84.5,68.6,30.03,SW,222,1.0,7.0,59,0.00,,,0.00,Wunderground v.1.15,2013-05-12 14:45:00,
2013-05-12 10:46:00,84.5,68.1,30.03,West,272,4.0,8.0,58,0.00,,,0.00,Wunderground v.1.15,2013-05-12 14:46:00,
2013-05-12 10:48:00,84.7,68.3,30.04,WSW,244,2.0,8.0,58,0.00,,,0.00,Wunderground v.1.15,2013-05-12 14:48:00,
2013-05-12 10:50:00,84.9,68.5,30.03,WNW,290,3.0,6.0,58,0.00,,,0.00,Wunderground v.1.15,2013-05-12 14:50:00,
2013-05-12 10:51:00,84.9,68.0,30.03,SW,226,0.0,6.0,57,0.00,,,0.00,Wunderground v.1.15,2013-05-12 14:51:00,
2013-05-12 10:53:00,85.1,68.2,30.03,West,273,1.0,6.0,57,0.00,,,0.00,Wunderground v.1.15,2013-05-12 14:53:00,
2013-05-12 10:55:00,85.3,68.8,30.03,West,281,0.0,9.0,58,0.00,,,0.00,Wunderground v.1.15,2013-05-12 14:55:00,
2013-05-12 10:56:00,85.5,68.5,30.03,West,261,0.0,9.0,57,0.00,,,0.00,Wunderground v.1.15,2013-05-12 14:56:00,
2013-05-12 10:58:00,85.5,68.5,30.03,SSW,209,5.0,9.0,57,0.00,,,0.00,Wunderground v.1.15,2013-05-12 14:58:00,
2013-05-12 11:01:00,85.5,68.0,30.03,West,266,6.0,6.0,56,0.00,,,0.00,Wunderground v.1.15,2013-05-12 15:01:00,
2013-05-12 11:02:00,85.5,68.0,30.03,WSW,247,0.0,6.0,56,0.00,,,0.00,Wunderground v.1.15,2013-05-12 15:02:00,
2013-05-12 11:03:00,85.5,68.0,30.03,West,263,4.0,6.0,56,0.00,,,0.00,Wunderground v.1.15,2013-05-12 15:03:00,
2013-05-12 11:06:00,85.7,68.2,30.03,West,267,5.0,6.0,56,0.00,,,0.00,Wunderground v.1.15,2013-05-12 15:06:00,
2013-05-12 11:07:00,85.7,68.2,30.03,SW,230,4.0,6.0,56,0.00,,,0.00,Wunderground v.1.15,2013-05-12 15:07:00,
2013-05-12 11:08:00,85.9,68.4,30.03,SW,225,0.0,6.0,56,0.00,,,0.00,Wunderground v.1.15,2013-05-12 15:08:00,
2013-05-12 11:11:00,85.9,67.9,30.03,WNW,284,4.0,5.0,55,0.00,,,0.00,Wunderground v.1.15,2013-05-12 15:11:00,
2013-05-12 11:12:00,85.9,67.9,30.03,WNW,299,0.0,5.0,55,0.00,,,0.00,Wunderground v.1.15,2013-05-12 15:12:00,
2013-05-12 11:14:00,86.1,68.0,30.03,SW,236,2.0,5.0,55,0.00,,,0.00,Wunderground v.1.15,2013-05-12 15:14:00,
2013-05-12 11:16:00,86.3,68.2,30.03,NW,311,1.0,5.0,55,0.00,,,0.00,Wunderground v.1.15,2013-05-12 15:16:00,
2013-05-12 11:17:00,86.3,67.7,30.03,NW,317,1.0,5.0,54,0.00,,,0.00,Wunderground v.1.15,2013-05-12 15:17:00,
2013-05-12 11:18:00,86.3,67.7,30.03,West,279,0.0,6.0,54,0.00,,,0.00,Wunderground v.1.15,2013-05-12 15:18:00,
2013-05-12 11:19:00,86.3,67.7,30.03,NW,318,3.0,6.0,54,0.00,,,0.00,Wunderground v.1.15,2013-05-12 15:19:00,
2013-05-12 11:21:00,86.1,67.5,30.03,WNW,284,0.0,4.0,54,0.00,,,0.00,Wunderground v.1.15,2013-05-12 15:21:00,
2013-05-12 11:22:00,86.1,67.5,30.03,NNW,341,1.0,4.0,54,0.00,,,0.00,Wunderground v.1.15,2013-05-12 15:22:00,
2013-05-12 11:24:00,86.1,67.5,30.03,NNW,330,0.0,4.0,54,0.00,,,0.00,Wunderground v.1.15,2013-05-12 15:24:00,
2013-05-12 11:25:00,86.1,67.5,30.03,West,273,5.0,5.0,54,0.00,,,0.00,Wunderground v.1.15,2013-05-12 15:25:00,
2013-05-12 11:26:00,86.1,67.5,30.03,NW,311,0.0,6.0,54,0.00,,,0.00,Wunderground v.1.15,2013-05-12 15:26:00,
2013-05-12 11:27:00,86.1,66.4,30.03,WNW,286,1.0,6.0,52,0.00,,,0.00,Wunderground v.1.15,2013-05-12 15:27:00,
2013-05-12 11:29:00,86.1,66.4,30.03,West,267,0.0,6.0,52,0.00,,,0.00,Wunderground v.1.15,2013-05-12 15:29:00,
2013-05-12 11:30:00,86.3,66.6,30.03,SW,219,2.0,3.0,52,0.00,,,0.00,Wunderground v.1.15,2013-05-12 15:30:00,
2013-05-12 11:31:00,86.3,66.6,30.03,WNW,288,5.0,6.0,52,0.00,,,0.00,Wunderground v.1.15,2013-05-12 15:31:00,
2013-05-12 11:32:00,86.3,66.6,30.03,NNW,335,1.0,6.0,52,0.00,,,0.00,Wunderground v.1.15,2013-05-12 15:32:00,
2013-05-12 11:35:00,86.3,66.0,30.03,WNW,283,0.0,8.0,51,0.00,,,0.00,Wunderground v.1.15,2013-05-12 15:35:00,
2013-05-12 11:36:00,86.3,66.0,30.03,WSW,248,0.0,8.0,51,0.00,,,0.00,Wunderground v.1.15,2013-05-12 15:36:00,
2013-05-12 11:38:00,86.5,66.2,30.03,NW,325,4.0,8.0,51,0.00,,,0.00,Wunderground v.1.15,2013-05-12 15:38:00,
2013-05-12 11:39:00,86.5,65.7,30.03,NW,326,0.0,8.0,50,0.00,,,0.00,Wunderground v.1.15,2013-05-12 15:39:00,
2013-05-12 11:40:00,86.5,65.7,30.03,WNW,300,0.0,3.0,50,0.00,,,0.00,Wunderground v.1.15,2013-05-12 15:40:00,
2013-05-12 11:41:00,86.5,65.7,30.02,West,273,1.0,3.0,50,0.00,,,0.00,Wunderground v.1.15,2013-05-12 15:41:00,
2013-05-12 11:43:00,86.7,67.0,30.03,WSW,238,5.0,5.0,52,0.00,,,0.00,Wunderground v.1.15,2013-05-12 15:43:00,
2013-05-12 11:44:00,87.0,66.1,30.02,WSW,245,2.0,7.0,50,0.00,,,0.00,Wunderground v.1.15,2013-05-12 15:44:00,
2013-05-12 11:45:00,87.0,66.7,30.03,WSW,245,0.0,7.0,51,0.00,,,0.00,Wunderground v.1.15,2013-05-12 15:45:00,
2013-05-12 11:46:00,87.4,66.5,30.03,SSW,212,1.0,7.0,50,0.00,,,0.00,Wunderground v.1.15,2013-05-12 15:46:00,
2013-05-12 11:47:00,87.4,66.5,30.03,SSW,212,0.0,7.0,50,0.00,,,0.00,Wunderground v.1.15,2013-05-12 15:47:00,
2013-05-12 11:48:00,87.4,65.9,30.03,SSW,213,4.0,7.0,49,0.00,,,0.00,Wunderground v.1.15,2013-05-12 15:48:00,
2013-05-12 11:58:00,88.8,65.4,30.03,West,275,0.0,1.0,46,0.00,,,0.00,Wunderground v.1.15,2013-05-12 15:58:00,
2013-05-12 11:59:00,88.8,65.4,30.03,NW,319,0.0,2.0,46,0.00,,,0.00,Wunderground v.1.15,2013-05-12 15:59:00,
2013-05-12 12:03:00,89.3,66.4,30.03,SSW,196,4.0,6.0,47,0.00,,,0.00,Wunderground v.1.15,2013-05-12 16:03:00,
2013-05-12 12:04:00,89.3,65.2,30.03,West,264,2.0,7.0,45,0.00,,,0.00,Wunderground v.1.15,2013-05-12 16:04:00,
2013-05-12 12:05:00,89.3,65.8,30.02,West,275,2.0,7.0,46,0.00,,,0.00,Wunderground v.1.15,2013-05-12 16:05:00,
2013-05-12 12:08:00,89.0,65.5,30.02,West,265,2.0,7.0,46,0.00,,,0.00,Wunderground v.1.15,2013-05-12 16:08:00,
2013-05-12 12:09:00,89.0,65.5,30.02,West,279,2.0,7.0,46,0.00,,,0.00,Wunderground v.1.15,2013-05-12 16:09:00,
2013-05-12 12:10:00,89.0,65.5,30.02,SW,223,6.0,7.0,46,0.00,,,0.00,Wunderground v.1.15,2013-05-12 16:10:00,
2013-05-12 12:20:00,89.0,65.5,30.02,West,270,8.0,8.0,46,0.00,,,0.00,Wunderground v.1.15,2013-05-12 16:20:00,
2013-05-12 12:25:00,88.6,65.2,30.02,WSW,242,0.0,11.0,46,0.00,,,0.00,Wunderground v.1.15,2013-05-12 16:25:00,
2013-05-12 12:30:00,88.6,65.2,30.02,West,259,1.0,3.0,46,0.00,,,0.00,Wunderground v.1.15,2013-05-12 16:30:00,
2013-05-12 12:31:00,88.6,65.2,30.01,West,278,2.0,3.0,46,0.00,,,0.00,Wunderground v.1.15,2013-05-12 16:31:00,
2013-05-12 12:35:00,88.8,64.7,30.02,South,189,4.0,6.0,45,0.00,,,0.00,Wunderground v.1.15,2013-05-12 16:35:00,
2013-05-12 12:36:00,89.0,64.9,30.01,SSW,209,2.0,6.0,45,0.00,,,0.00,Wunderground v.1.15,2013-05-12 16:36:00,
2013-05-12 12:40:00,89.3,63.9,30.01,NNW,346,4.0,4.0,43,0.00,,,0.00,Wunderground v.1.15,2013-05-12 16:40:00,
2013-05-12 12:41:00,89.3,63.9,30.01,WSW,238,2.0,4.0,43,0.00,,,0.00,Wunderground v.1.15,2013-05-12 16:41:00,
2013-05-12 12:45:00,89.5,63.4,30.01,WSW,237,1.0,7.0,42,0.00,,,0.00,Wunderground v.1.15,2013-05-12 16:45:00,
2013-05-12 12:46:00,89.5,63.4,30.00,SW,227,5.0,7.0,42,0.00,,,0.00,Wunderground v.1.15,2013-05-12 16:46:00,
2013-05-12 12:47:00,89.7,63.6,30.00,NW,304,1.0,7.0,42,0.00,,,0.00,Wunderground v.1.15,2013-05-12 16:47:00,
2013-05-12 12:50:00,89.7,63.6,30.00,SW,221,6.0,6.0,42,0.00,,,0.00,Wunderground v.1.15,2013-05-12 16:50:00,
2013-05-12 12:51:00,89.7,63.6,30.00,SW,214,5.0,8.0,42,0.00,,,0.00,Wunderground v.1.15,2013-05-12 16:51:00,
2013-05-12 12:52:00,89.7,64.2,30.00,West,269,8.0,9.0,43,0.00,,,0.00,Wunderground v.1.15,2013-05-12 16:52:00,
2013-05-12 12:55:00,89.7,64.2,30.00,WNW,291,1.0,9.0,43,0.00,,,0.00,Wunderground v.1.15,2013-05-12 16:55:00,
2013-05-12 12:56:00,89.7,64.2,30.00,WNW,291,0.0,9.0,43,0.00,,,0.00,Wunderground v.1.15,2013-05-12 16:56:00,
2013-05-12 12:57:00,89.9,65.1,30.00,West,265,1.0,9.0,44,0.00,,,0.00,Wunderground v.1.15,2013-05-12 16:57:00,
2013-05-12 13:01:00,89.9,63.7,30.00,WSW,240,0.0,5.0,42,0.00,,,0.00,Wunderground v.1.15,2013-05-12 17:01:00,
2013-05-12 13:02:00,90.1,63.2,30.00,SW,226,5.0,8.0,41,0.00,,,0.00,Wunderground v.1.15,2013-05-12 17:02:00,
2013-05-12 13:03:00,90.1,63.2,30.00,WNW,293,0.0,8.0,41,0.00,,,0.00,Wunderground v.1.15,2013-05-12 17:03:00,
2013-05-12 13:06:00,90.3,64.1,30.00,SW,231,6.0,9.0,42,0.00,,,0.00,Wunderground v.1.15,2013-05-12 17:06:00,
2013-05-12 13:07:00,90.3,63.4,30.00,SW,233,6.0,9.0,41,0.00,,,0.00,Wunderground v.1.15,2013-05-12 17:07:00,
2013-05-12 13:08:00,90.3,63.4,29.99,West,273,1.0,9.0,41,0.00,,,0.00,Wunderground v.1.15,2013-05-12 17:08:00,
2013-05-12 13:11:00,90.5,63.6,30.00,WNW,282,2.0,6.0,41,0.00,,,0.00,Wunderground v.1.15,2013-05-12 17:11:00,
2013-05-12 13:12:00,90.5,63.6,30.00,NW,305,3.0,6.0,41,0.00,,,0.00,Wunderground v.1.15,2013-05-12 17:12:00,
2013-05-12 13:13:00,90.7,64.5,30.00,WNW,290,2.0,6.0,42,0.00,,,0.00,Wunderground v.1.15,2013-05-12 17:13:00,
2013-05-12 13:16:00,90.7,63.8,30.00,WNW,286,4.0,8.0,41,0.00,,,0.00,Wunderground v.1.15,2013-05-12 17:16:00,
2013-05-12 13:17:00,91.0,64.7,30.00,WNW,291,0.0,8.0,42,0.00,,,0.00,Wunderground v.1.15,2013-05-12 17:17:00,
2013-05-12 13:18:00,91.0,64.0,29.99,WSW,253,7.0,8.0,41,0.00,,,0.00,Wunderground v.1.15,2013-05-12 17:18:00,
2013-05-12 13:19:00,91.0,64.0,30.00,WNW,284,5.0,8.0,41,0.00,,,0.00,Wunderground v.1.15,2013-05-12 17:19:00,
2013-05-12 13:21:00,91.0,63.3,29.99,WSW,238,3.0,10.0,40,0.00,,,0.00,Wunderground v.1.15,2013-05-12 17:21:00,
2013-05-12 13:22:00,91.0,64.0,29.99,West,271,7.0,10.0,41,0.00,,,0.00,Wunderground v.1.15,2013-05-12 17:22:00,
2013-05-12 13:23:00,90.7,63.8,29.99,WNW,282,5.0,10.0,41,0.00,,,0.00,Wunderground v.1.15,2013-05-12 17:23:00,
2013-05-12 13:24:00,90.7,64.5,29.99,West,274,6.0,10.0,42,0.00,,,0.00,Wunderground v.1.15,2013-05-12 17:24:00,
2013-05-12 13:25:00,90.7,63.8,30.00,WNW,284,4.0,10.0,41,0.00,,,0.00,Wunderground v.1.15,2013-05-12 17:25:00,
2013-05-12 13:26:00,90.5,63.6,29.99,West,263,2.0,10.0,41,0.00,,,0.00,Wunderground v.1.15,2013-05-12 17:26:00,
2013-05-12 13:27:00,90.5,63.6,29.99,WSW,250,7.0,10.0,41,0.00,,,0.00,Wunderground v.1.15,2013-05-12 17:27:00,
2013-05-12 13:28:00,90.5,64.3,30.00,NW,323,5.0,10.0,42,0.00,,,0.00,Wunderground v.1.15,2013-05-12 17:28:00,
2013-05-12 13:29:00,90.3,64.1,29.99,West,263,7.0,10.0,42,0.00,,,0.00,Wunderground v.1.15,2013-05-12 17:29:00,
2013-05-12 13:31:00,90.3,64.1,29.99,SW,225,5.0,5.0,42,0.00,,,0.00,Wunderground v.1.15,2013-05-12 17:31:00,
2013-05-12 13:32:00,90.3,64.8,29.99,NW,324,8.0,12.0,43,0.00,,,0.00,Wunderground v.1.15,2013-05-12 17:32:00,
2013-05-12 13:33:00,90.3,64.1,29.99,WNW,288,1.0,12.0,42,0.00,,,0.00,Wunderground v.1.15,2013-05-12 17:33:00,
2013-05-12 13:35:00,90.3,64.8,29.99,West,277,5.0,12.0,43,0.00,,,0.00,Wunderground v.1.15,2013-05-12 17:35:00,
2013-05-12 13:36:00,90.3,64.1,29.99,WSW,240,6.0,12.0,42,0.00,,,0.00,Wunderground v.1.15,2013-05-12 17:36:00,
2013-05-12 13:37:00,90.3,64.1,29.99,West,269,6.0,12.0,42,0.00,,,0.00,Wunderground v.1.15,2013-05-12 17:37:00,
2013-05-12 13:38:00,90.5,64.3,29.99,WSW,240,0.0,12.0,42,0.00,,,0.00,Wunderground v.1.15,2013-05-12 17:38:00,
2013-05-12 13:40:00,90.5,64.9,29.99,West,270,5.0,5.0,43,0.00,,,0.00,Wunderground v.1.15,2013-05-12 17:40:00,
2013-05-12 13:42:00,90.7,65.1,29.99,South,169,7.0,7.0,43,0.00,,,0.00,Wunderground v.1.15,2013-05-12 17:42:00,
2013-05-12 13:44:00,91.0,64.7,29.99,SW,220,6.0,7.0,42,0.00,,,0.00,Wunderground v.1.15,2013-05-12 17:44:00,
2013-05-12 13:45:00,91.0,64.7,29.99,West,279,0.0,7.0,42,0.00,,,0.00,Wunderground v.1.15,2013-05-12 17:45:00,
2013-05-12 13:47:00,91.0,64.0,29.99,SSW,205,0.0,7.0,41,0.00,,,0.00,Wunderground v.1.15,2013-05-12 17:47:00,
2013-05-12 13:48:00,90.7,64.5,29.99,West,278,2.0,7.0,42,0.00,,,0.00,Wunderground v.1.15,2013-05-12 17:48:00,
2013-05-12 13:49:00,90.7,64.5,29.99,WNW,290,2.0,7.0,42,0.00,,,0.00,Wunderground v.1.15,2013-05-12 17:49:00,
2013-05-12 13:50:00,90.7,63.8,29.99,NW,312,2.0,5.0,41,0.00,,,0.00,Wunderground v.1.15,2013-05-12 17:50:00,
2013-05-12 13:52:00,90.7,65.1,29.99,SSW,196,4.0,5.0,43,0.00,,,0.00,Wunderground v.1.15,2013-05-12 17:52:00,
2013-05-12 13:53:00,90.7,64.5,29.98,West,279,1.0,5.0,42,0.00,,,0.00,Wunderground v.1.15,2013-05-12 17:53:00,
2013-05-12 13:54:00,90.7,64.5,29.98,WNW,302,1.0,5.0,42,0.00,,,0.00,Wunderground v.1.15,2013-05-12 17:54:00,
2013-05-12 13:56:00,91.0,64.7,29.99,WNW,284,4.0,9.0,42,0.00,,,0.00,Wunderground v.1.15,2013-05-12 17:56:00,
2013-05-12 13:57:00,91.0,64.7,29.99,West,260,5.0,10.0,42,0.00,,,0.00,Wunderground v.1.15,2013-05-12 17:57:00,
2013-05-12 13:58:00,90.7,64.5,29.99,WNW,295,5.0,10.0,42,0.00,,,0.00,Wunderground v.1.15,2013-05-12 17:58:00,
2013-05-12 14:00:00,90.7,64.5,29.98,WNW,291,1.0,3.0,42,0.00,,,0.00,Wunderground v.1.15,2013-05-12 18:00:00,
2013-05-12 14:01:00,91.0,65.4,29.98,NW,320,4.0,6.0,43,0.00,,,0.00,Wunderground v.1.15,2013-05-12 18:01:00,
2013-05-12 14:02:00,91.0,64.0,29.98,West,265,1.0,6.0,41,0.00,,,0.00,Wunderground v.1.15,2013-05-12 18:02:00,
2013-05-12 14:03:00,91.0,64.0,29.98,WNW,287,1.0,6.0,41,0.00,,,0.00,Wunderground v.1.15,2013-05-12 18:03:00,
2013-05-12 14:04:00,91.0,64.0,29.98,SW,217,0.0,6.0,41,0.00,,,0.00,Wunderground v.1.15,2013-05-12 18:04:00,
2013-05-12 14:05:00,91.0,64.0,29.98,NNW,327,1.0,7.0,41,0.00,,,0.00,Wunderground v.1.15,2013-05-12 18:05:00,
2013-05-12 14:06:00,91.0,64.7,29.98,West,270,2.0,8.0,42,0.00,,,0.00,Wunderground v.1.15,2013-05-12 18:06:00,
2013-05-12 14:08:00,90.7,63.8,29.98,WNW,284,0.0,8.0,41,0.00,,,0.00,Wunderground v.1.15,2013-05-12 18:08:00,
2013-05-12 14:09:00,90.5,64.3,29.98,West,266,11.0,11.0,42,0.00,,,0.00,Wunderground v.1.15,2013-05-12 18:09:00,
2013-05-12 14:10:00,90.5,64.3,29.98,NW,309,7.0,7.0,42,0.00,,,0.00,Wunderground v.1.15,2013-05-12 18:10:00,
2013-05-12 14:11:00,90.3,64.1,29.98,SW,229,6.0,9.0,42,0.00,,,0.00,Wunderground v.1.15,2013-05-12 18:11:00,
2013-05-12 14:13:00,90.1,65.2,29.98,WSW,256,7.0,9.0,44,0.00,,,0.00,Wunderground v.1.15,2013-05-12 18:13:00,
2013-05-12 14:14:00,90.1,64.6,29.98,West,267,7.0,10.0,43,0.00,,,0.00,Wunderground v.1.15,2013-05-12 18:14:00,
2013-05-12 14:15:00,89.9,64.4,29.98,WNW,288,1.0,10.0,43,0.00,,,0.00,Wunderground v.1.15,2013-05-12 18:15:00,
2013-05-12 14:16:00,89.9,64.4,29.98,West,264,7.0,10.0,43,0.00,,,0.00,Wunderground v.1.15,2013-05-12 18:16:00,
2013-05-12 14:18:00,89.7,64.9,29.98,WNW,288,3.0,10.0,44,0.00,,,0.00,Wunderground v.1.15,2013-05-12 18:18:00,
2013-05-12 14:19:00,89.5,64.7,29.98,NW,309,0.0,10.0,44,0.00,,,0.00,Wunderground v.1.15,2013-05-12 18:19:00,
2013-05-12 14:20:00,89.5,65.4,29.98,NW,309,1.0,5.0,45,0.00,,,0.00,Wunderground v.1.15,2013-05-12 18:20:00,
2013-05-12 14:21:00,89.5,65.4,29.98,NW,306,4.0,7.0,45,0.00,,,0.00,Wunderground v.1.15,2013-05-12 18:21:00,
2013-05-12 14:22:00,89.3,65.2,29.98,WNW,299,0.0,7.0,45,0.00,,,0.00,Wunderground v.1.15,2013-05-12 18:22:00,
2013-05-12 14:24:00,89.5,65.4,29.98,North,355,4.0,7.0,45,0.00,,,0.00,Wunderground v.1.15,2013-05-12 18:24:00,
2013-05-12 14:25:00,89.5,65.4,29.98,NW,319,5.0,7.0,45,0.00,,,0.00,Wunderground v.1.15,2013-05-12 18:25:00,
2013-05-12 14:26:00,89.5,64.7,29.98,North,5,7.0,7.0,44,0.00,,,0.00,Wunderground v.1.15,2013-05-12 18:26:00,
2013-05-12 14:27:00,89.7,64.9,29.98,NW,311,6.0,7.0,44,0.00,,,0.00,Wunderground v.1.15,2013-05-12 18:27:00,
2013-05-12 14:29:00,89.9,65.1,29.98,WNW,288,1.0,8.0,44,0.00,,,0.00,Wunderground v.1.15,2013-05-12 18:29:00,
2013-05-12 14:30:00,89.9,65.1,29.98,WNW,287,3.0,4.0,44,0.00,,,0.00,Wunderground v.1.15,2013-05-12 18:30:00,
2013-05-12 14:31:00,89.9,65.1,29.98,WNW,289,4.0,5.0,44,0.00,,,0.00,Wunderground v.1.15,2013-05-12 18:31:00,
2013-05-12 14:33:00,89.9,65.1,29.98,West,267,8.0,8.0,44,0.00,,,0.00,Wunderground v.1.15,2013-05-12 18:33:00,
2013-05-12 14:35:00,89.9,64.4,29.98,ENE,73,0.0,9.0,43,0.00,,,0.00,Wunderground v.1.15,2013-05-12 18:35:00,
2013-05-12 14:36:00,89.7,64.2,29.98,NW,313,0.0,9.0,43,0.00,,,0.00,Wunderground v.1.15,2013-05-12 18:36:00,
2013-05-12 14:38:00,89.7,64.2,29.98,West,265,5.0,9.0,43,0.00,,,0.00,Wunderground v.1.15,2013-05-12 18:38:00,
2013-05-12 14:39:00,89.7,64.9,29.98,West,269,4.0,9.0,44,0.00,,,0.00,Wunderground v.1.15,2013-05-12 18:39:00,
2013-05-12 14:40:00,89.7,64.9,29.98,West,281,0.0,3.0,44,0.00,,,0.00,Wunderground v.1.15,2013-05-12 18:40:00,
2013-05-12 14:42:00,89.7,64.2,29.98,WNW,283,4.0,8.0,43,0.00,,,0.00,Wunderground v.1.15,2013-05-12 18:42:00,
2013-05-12 14:43:00,89.7,64.2,29.98,WNW,288,0.0,8.0,43,0.00,,,0.00,Wunderground v.1.15,2013-05-12 18:43:00,
2013-05-12 14:44:00,89.9,65.1,29.98,SW,236,7.0,8.0,44,0.00,,,0.00,Wunderground v.1.15,2013-05-12 18:44:00,
2013-05-12 14:45:00,89.9,65.1,29.98,SW,219,4.0,8.0,44,0.00,,,0.00,Wunderground v.1.15,2013-05-12 18:45:00,
2013-05-12 14:46:00,89.9,65.1,29.98,SW,227,3.0,8.0,44,0.00,,,0.00,Wunderground v.1.15,2013-05-12 18:46:00,
2013-05-12 14:47:00,89.9,64.4,29.97,WSW,247,11.0,11.0,43,0.00,,,0.00,Wunderground v.1.15,2013-05-12 18:47:00,
2013-05-12 14:48:00,89.9,65.1,29.98,West,263,11.0,11.0,44,0.00,,,0.00,Wunderground v.1.15,2013-05-12 18:48:00,
2013-05-12 14:49:00,89.9,65.1,29.98,NNW,337,5.0,11.0,44,0.00,,,0.00,Wunderground v.1.15,2013-05-12 18:49:00,
2013-05-12 14:51:00,89.9,64.4,29.98,NW,322,3.0,6.0,43,0.00,,,0.00,Wunderground v.1.15,2013-05-12 18:51:00,
2013-05-12 14:52:00,89.9,64.4,29.98,NW,304,5.0,7.0,43,0.00,,,0.00,Wunderground v.1.15,2013-05-12 18:52:00,
2013-05-12 14:53:00,90.1,64.6,29.98,NW,321,5.0,9.0,43,0.00,,,0.00,Wunderground v.1.15,2013-05-12 18:53:00,
2013-05-12 14:54:00,90.1,65.2,29.98,West,259,5.0,9.0,44,0.00,,,0.00,Wunderground v.1.15,2013-05-12 18:54:00,
2013-05-12 14:56:00,90.3,64.1,29.98,WNW,296,7.0,10.0,42,0.00,,,0.00,Wunderground v.1.15,2013-05-12 18:56:00,
2013-05-12 14:57:00,90.3,64.1,29.98,WSW,253,5.0,11.0,42,0.00,,,0.00,Wunderground v.1.15,2013-05-12 18:57:00,
2013-05-12 14:58:00,90.3,64.8,29.98,NW,324,4.0,11.0,43,0.00,,,0.00,Wunderground v.1.15,2013-05-12 18:58:00,
2013-05-12 15:00:00,90.3,64.1,29.98,West,269,1.0,1.0,42,0.00,,,0.00,Wunderground v.1.15,2013-05-12 19:00:00,
2013-05-12 15:01:00,90.3,64.1,29.98,NW,313,0.0,8.0,42,0.00,,,0.00,Wunderground v.1.15,2013-05-12 19:01:00,
2013-05-12 15:02:00,90.5,64.9,29.97,SW,222,3.0,8.0,43,0.00,,,0.00,Wunderground v.1.15,2013-05-12 19:02:00,
2013-05-12 15:03:00,90.5,64.3,29.97,NW,323,5.0,11.0,42,0.00,,,0.00,Wunderground v.1.15,2013-05-12 19:03:00,
2013-05-12 15:05:00,90.7,64.5,29.97,WNW,291,6.0,11.0,42,0.00,,,0.00,Wunderground v.1.15,2013-05-12 19:05:00,
2013-05-12 15:06:00,90.7,64.5,29.98,North,5,4.0,11.0,42,0.00,,,0.00,Wunderground v.1.15,2013-05-12 19:06:00,
2013-05-12 15:07:00,90.7,63.8,29.98,West,263,0.0,11.0,41,0.00,,,0.00,Wunderground v.1.15,2013-05-12 19:07:00,
2013-05-12 15:09:00,90.7,63.8,29.97,West,268,4.0,4.0,41,0.00,,,0.00,Wunderground v.1.15,2013-05-12 19:09:00,
2013-05-12 15:10:00,91.0,64.0,29.97,West,272,1.0,7.0,41,0.00,,,0.00,Wunderground v.1.15,2013-05-12 19:10:00,
2013-05-12 15:11:00,91.0,64.0,29.97,NNW,338,1.0,9.0,41,0.00,,,0.00,Wunderground v.1.15,2013-05-12 19:11:00,
2013-05-12 15:13:00,91.0,64.0,29.98,South,184,5.0,10.0,41,0.00,,,0.00,Wunderground v.1.15,2013-05-12 19:13:00,
2013-05-12 15:14:00,91.0,64.0,29.97,NW,323,4.0,13.0,41,0.00,,,0.00,Wunderground v.1.15,2013-05-12 19:14:00,
2013-05-12 15:15:00,91.0,64.0,29.97,West,268,4.0,13.0,41,0.00,,,0.00,Wunderground v.1.15,2013-05-12 19:15:00,
2013-05-12 15:16:00,91.0,64.0,29.97,WNW,302,7.0,13.0,41,0.00,,,0.00,Wunderground v.1.15,2013-05-12 19:16:00,
2013-05-12 15:18:00,91.0,64.7,29.97,SW,229,3.0,13.0,42,0.00,,,0.00,Wunderground v.1.15,2013-05-12 19:18:00,
2013-05-12 15:19:00,91.0,65.4,29.97,North,360,2.0,4.0,43,0.00,,,0.00,Wunderground v.1.15,2013-05-12 19:19:00,
2013-05-12 15:20:00,91.0,64.7,29.97,NW,305,0.0,7.0,42,0.00,,,0.00,Wunderground v.1.15,2013-05-12 19:20:00,
2013-05-12 15:22:00,91.2,64.9,29.97,NNW,328,8.0,10.0,42,0.00,,,0.00,Wunderground v.1.15,2013-05-12 19:22:00,
2013-05-12 15:23:00,91.2,64.2,29.97,North,5,4.0,11.0,41,0.00,,,0.00,Wunderground v.1.15,2013-05-12 19:23:00,
2013-05-12 15:24:00,91.2,64.2,29.96,WNW,296,8.0,11.0,41,0.00,,,0.00,Wunderground v.1.15,2013-05-12 19:24:00,
2013-05-12 15:25:00,91.2,64.2,29.97,WSW,245,2.0,11.0,41,0.00,,,0.00,Wunderground v.1.15,2013-05-12 19:25:00,
2013-05-12 15:27:00,91.4,65.1,29.97,NW,308,3.0,11.0,42,0.00,,,0.00,Wunderground v.1.15,2013-05-12 19:27:00,
2013-05-12 15:28:00,91.4,64.4,29.96,West,272,4.0,11.0,41,0.00,,,0.00,Wunderground v.1.15,2013-05-12 19:28:00,
2013-05-12 15:29:00,91.6,63.9,29.96,West,273,0.0,5.0,40,0.00,,,0.00,Wunderground v.1.15,2013-05-12 19:29:00,
2013-05-12 15:30:00,91.6,64.6,29.96,WNW,296,5.0,7.0,41,0.00,,,0.00,Wunderground v.1.15,2013-05-12 19:30:00,
2013-05-12 15:32:00,91.8,64.0,29.96,WSW,256,6.0,10.0,40,0.00,,,0.00,Wunderground v.1.15,2013-05-12 19:32:00,
2013-05-12 15:34:00,91.8,64.0,29.96,NW,323,6.0,10.0,40,0.00,,,0.00,Wunderground v.1.15,2013-05-12 19:34:00,
2013-05-12 15:36:00,92.1,65.0,29.96,WNW,296,5.0,10.0,41,0.00,,,0.00,Wunderground v.1.15,2013-05-12 19:36:00,
2013-05-12 15:37:00,92.1,64.3,29.96,NW,326,10.0,10.0,40,0.00,,,0.00,Wunderground v.1.15,2013-05-12 19:37:00,
2013-05-12 15:38:00,92.1,64.3,29.96,WNW,295,0.0,10.0,40,0.00,,,0.00,Wunderground v.1.15,2013-05-12 19:38:00,
2013-05-12 15:39:00,92.1,64.3,29.96,WNW,283,1.0,4.0,40,0.00,,,0.00,Wunderground v.1.15,2013-05-12 19:39:00,
2013-05-12 15:41:00,92.1,64.3,29.96,WSW,251,9.0,13.0,40,0.00,,,0.00,Wunderground v.1.15,2013-05-12 19:41:00,
2013-05-12 15:42:00,92.1,64.3,29.96,NNW,329,6.0,13.0,40,0.00,,,0.00,Wunderground v.1.15,2013-05-12 19:42:00,
2013-05-12 15:43:00,92.1,63.6,29.96,West,273,5.0,13.0,39,0.00,,,0.00,Wunderground v.1.15,2013-05-12 19:43:00,
2013-05-12 15:44:00,91.8,64.0,29.96,West,274,2.0,13.0,40,0.00,,,0.00,Wunderground v.1.15,2013-05-12 19:44:00,
2013-05-12 15:45:00,91.8,64.0,29.96,West,261,4.0,13.0,40,0.00,,,0.00,Wunderground v.1.15,2013-05-12 19:45:00,
2013-05-12 15:46:00,91.6,63.9,29.96,WNW,290,7.0,13.0,40,0.00,,,0.00,Wunderground v.1.15,2013-05-12 19:46:00,
2013-05-12 15:47:00,91.6,63.9,29.96,WNW,286,5.0,13.0,40,0.00,,,0.00,Wunderground v.1.15,2013-05-12 19:47:00,
2013-05-12 15:48:00,91.6,63.9,29.96,West,264,5.0,13.0,40,0.00,,,0.00,Wunderground v.1.15,2013-05-12 19:48:00,
2013-05-12 15:49:00,91.6,63.9,29.96,WNW,300,1.0,5.0,40,0.00,,,0.00,Wunderground v.1.15,2013-05-12 19:49:00,
2013-05-12 15:50:00,91.6,63.9,29.96,NW,309,3.0,8.0,40,0.00,,,0.00,Wunderground v.1.15,2013-05-12 19:50:00,
2013-05-12 15:52:00,91.6,63.9,29.96,West,268,7.0,8.0,40,0.00,,,0.00,Wunderground v.1.15,2013-05-12 19:52:00,
2013-05-12 15:53:00,91.8,64.0,29.96,NW,313,8.0,8.0,40,0.00,,,0.00,Wunderground v.1.15,2013-05-12 19:53:00,
2013-05-12 15:54:00,91.8,64.0,29.96,WNW,288,6.0,9.0,40,0.00,,,0.00,Wunderground v.1.15,2013-05-12 19:54:00,
2013-05-12 15:56:00,91.8,64.0,29.96,NNE,13,3.0,9.0,40,0.00,,,0.00,Wunderground v.1.15,2013-05-12 19:56:00,
2013-05-12 15:57:00,91.8,64.0,29.96,WNW,288,2.0,9.0,40,0.00,,,0.00,Wunderground v.1.15,2013-05-12 19:57:00,
2013-05-12 15:58:00,91.6,63.9,29.96,WNW,290,6.0,9.0,40,0.00,,,0.00,Wunderground v.1.15,2013-05-12 19:58:00,
2013-05-12 15:59:00,91.6,63.9,29.96,NW,306,4.0,9.0,40,0.00,,,0.00,Wunderground v.1.15,2013-05-12 19:59:00,
2013-05-12 16:01:00,91.4,64.4,29.96,WNW,297,5.0,10.0,41,0.00,,,0.00,Wunderground v.1.15,2013-05-12 20:01:00,
2013-05-12 16:02:00,91.4,63.7,29.96,West,261,5.0,10.0,40,0.00,,,0.00,Wunderground v.1.15,2013-05-12 20:02:00,
2013-05-12 16:03:00,91.2,63.5,29.96,NW,307,4.0,10.0,40,0.00,,,0.00,Wunderground v.1.15,2013-05-12 20:03:00,
2013-05-12 16:04:00,91.2,64.2,29.96,West,267,7.0,10.0,41,0.00,,,0.00,Wunderground v.1.15,2013-05-12 20:04:00,
2013-05-12 16:06:00,91.0,63.3,29.96,NW,316,4.0,10.0,40,0.00,,,0.00,Wunderground v.1.15,2013-05-12 20:06:00,
2013-05-12 16:07:00,91.0,64.0,29.96,NW,312,0.0,10.0,41,0.00,,,0.00,Wunderground v.1.15,2013-05-12 20:07:00,
2013-05-12 16:09:00,91.0,64.7,29.96,WNW,292,6.0,11.0,42,0.00,,,0.00,Wunderground v.1.15,2013-05-12 20:09:00,
2013-05-12 16:11:00,91.0,64.0,29.96,NE,43,1.0,7.0,41,0.00,,,0.00,Wunderground v.1.15,2013-05-12 20:11:00,
2013-05-12 16:12:00,91.0,64.0,29.95,NW,312,1.0,7.0,41,0.00,,,0.00,Wunderground v.1.15,2013-05-12 20:12:00,
2013-05-12 16:13:00,91.0,64.7,29.96,West,273,8.0,9.0,42,0.00,,,0.00,Wunderground v.1.15,2013-05-12 20:13:00,
2013-05-12 16:14:00,91.0,64.0,29.96,WNW,289,4.0,9.0,41,0.00,,,0.00,Wunderground v.1.15,2013-05-12 20:14:00,
2013-05-12 16:15:00,91.0,64.7,29.96,WNW,290,2.0,9.0,42,0.00,,,0.00,Wunderground v.1.15,2013-05-12 20:15:00,
2013-05-12 16:16:00,91.0,64.7,29.96,WNW,301,4.0,9.0,42,0.00,,,0.00,Wunderground v.1.15,2013-05-12 20:16:00,
2013-05-12 16:17:00,91.0,64.7,29.96,West,277,5.0,9.0,42,0.00,,,0.00,Wunderground v.1.15,2013-05-12 20:17:00,
2013-05-12 16:18:00,91.0,64.7,29.96,WNW,300,8.0,9.0,42,0.00,,,0.00,Wunderground v.1.15,2013-05-12 20:18:00,
2013-05-12 16:19:00,91.0,64.0,29.96,NNE,16,5.0,11.0,41,0.00,,,0.00,Wunderground v.1.15,2013-05-12 20:19:00,
2013-05-12 16:20:00,91.2,64.2,29.96,West,273,8.0,8.0,41,0.00,,,0.00,Wunderground v.1.15,2013-05-12 20:20:00,
2013-05-12 16:21:00,91.2,64.2,29.96,WNW,296,2.0,8.0,41,0.00,,,0.00,Wunderground v.1.15,2013-05-12 20:21:00,
2013-05-12 16:23:00,91.2,64.9,29.96,NNW,327,7.0,8.0,42,0.00,,,0.00,Wunderground v.1.15,2013-05-12 20:23:00,
2013-05-12 16:24:00,91.2,64.2,29.95,WNW,286,4.0,9.0,41,0.00,,,0.00,Wunderground v.1.15,2013-05-12 20:24:00,
2013-05-12 16:25:00,91.2,64.2,29.95,WSW,247,7.0,9.0,41,0.00,,,0.00,Wunderground v.1.15,2013-05-12 20:25:00,
2013-05-12 16:26:00,91.0,64.0,29.95,West,262,7.0,9.0,41,0.00,,,0.00,Wunderground v.1.15,2013-05-12 20:26:00,
2013-05-12 16:28:00,91.0,64.0,29.95,NW,306,2.0,9.0,41,0.00,,,0.00,Wunderground v.1.15,2013-05-12 20:28:00,
2013-05-12 16:29:00,91.0,64.7,29.95,WSW,244,5.0,9.0,42,0.00,,,0.00,Wunderground v.1.15,2013-05-12 20:29:00,
2013-05-12 16:31:00,91.0,63.3,29.95,WSW,254,8.0,9.0,40,0.00,,,0.00,Wunderground v.1.15,2013-05-12 20:31:00,
2013-05-12 16:32:00,91.0,64.0,29.95,WNW,300,1.0,9.0,41,0.00,,,0.00,Wunderground v.1.15,2013-05-12 20:32:00,
2013-05-12 16:33:00,91.0,64.0,29.95,NNW,333,8.0,11.0,41,0.00,,,0.00,Wunderground v.1.15,2013-05-12 20:33:00,
2013-05-12 16:34:00,90.7,63.1,29.95,NNW,333,4.0,14.0,40,0.00,,,0.00,Wunderground v.1.15,2013-05-12 20:34:00,
2013-05-12 16:36:00,90.5,63.6,29.95,West,274,9.0,14.0,41,0.00,,,0.00,Wunderground v.1.15,2013-05-12 20:36:00,
2013-05-12 16:37:00,90.5,63.6,29.95,NW,315,0.0,14.0,41,0.00,,,0.00,Wunderground v.1.15,2013-05-12 20:37:00,
2013-05-12 16:38:00,90.3,64.1,29.95,WNW,285,1.0,14.0,42,0.00,,,0.00,Wunderground v.1.15,2013-05-12 20:38:00,
2013-05-12 16:39:00,90.3,64.1,29.95,NNW,346,3.0,14.0,42,0.00,,,0.00,Wunderground v.1.15,2013-05-12 20:39:00,
2013-05-12 16:41:00,90.3,63.4,29.95,NNW,340,3.0,9.0,41,0.00,,,0.00,Wunderground v.1.15,2013-05-12 20:41:00,
2013-05-12 16:42:00,90.3,63.4,29.95,NNW,346,2.0,10.0,41,0.00,,,0.00,Wunderground v.1.15,2013-05-12 20:42:00,
2013-05-12 16:43:00,90.3,63.4,29.95,WSW,257,6.0,10.0,41,0.00,,,0.00,Wunderground v.1.15,2013-05-12 20:43:00,
2013-05-12 16:44:00,90.3,63.4,29.95,WSW,247,7.0,10.0,41,0.00,,,0.00,Wunderground v.1.15,2013-05-12 20:44:00,
2013-05-12 16:47:00,90.3,63.4,29.95,West,268,6.0,10.0,41,0.00,,,0.00,Wunderground v.1.15,2013-05-12 20:47:00,
2013-05-12 16:48:00,90.5,63.6,29.95,West,260,0.0,10.0,41,0.00,,,0.00,Wunderground v.1.15,2013-05-12 20:48:00,
2013-05-12 16:49:00,90.5,63.6,29.95,SW,226,7.0,10.0,41,0.00,,,0.00,Wunderground v.1.15,2013-05-12 20:49:00,
2013-05-12 16:50:00,90.5,63.6,29.95,West,272,7.0,7.0,41,0.00,,,0.00,Wunderground v.1.15,2013-05-12 20:50:00,
2013-05-12 16:52:00,90.5,62.9,29.95,North,355,4.0,9.0,40,0.00,,,0.00,Wunderground v.1.15,2013-05-12 20:52:00,
2013-05-12 16:53:00,90.5,62.9,29.95,NNW,334,3.0,11.0,40,0.00,,,0.00,Wunderground v.1.15,2013-05-12 20:53:00,
2013-05-12 16:54:00,90.3,62.7,29.96,North,10,2.0,11.0,40,0.00,,,0.00,Wunderground v.1.15,2013-05-12 20:54:00,
2013-05-12 16:56:00,90.3,63.4,29.95,West,266,6.0,11.0,41,0.00,,,0.00,Wunderground v.1.15,2013-05-12 20:56:00,
2013-05-12 16:57:00,90.1,63.2,29.96,WNW,301,1.0,11.0,41,0.00,,,0.00,Wunderground v.1.15,2013-05-12 20:57:00,
2013-05-12 16:58:00,90.1,63.2,29.95,NNW,338,0.0,11.0,41,0.00,,,0.00,Wunderground v.1.15,2013-05-12 20:58:00,
2013-05-12 16:59:00,90.1,63.2,29.95,WSW,251,1.0,11.0,41,0.00,,,0.00,Wunderground v.1.15,2013-05-12 20:59:00,
2013-05-12 17:01:00,90.3,62.7,29.95,NW,315,0.0,7.0,40,0.00,,,0.00,Wunderground v.1.15,2013-05-12 21:01:00,
2013-05-12 17:02:00,90.3,62.7,29.95,WNW,290,8.0,12.0,40,0.00,,,0.00,Wunderground v.1.15,2013-05-12 21:02:00,
2013-05-12 17:03:00,90.3,62.7,29.95,North,350,6.0,12.0,40,0.00,,,0.00,Wunderground v.1.15,2013-05-12 21:03:00,
2013-05-12 17:04:00,90.3,62.7,29.96,WNW,300,6.0,12.0,40,0.00,,,0.00,Wunderground v.1.15,2013-05-12 21:04:00,
2013-05-12 17:05:00,90.3,62.7,29.96,West,259,5.0,12.0,40,0.00,,,0.00,Wunderground v.1.15,2013-05-12 21:05:00,
2013-05-12 17:07:00,90.5,62.9,29.95,WNW,290,0.0,12.0,40,0.00,,,0.00,Wunderground v.1.15,2013-05-12 21:07:00,
2013-05-12 17:08:00,90.5,62.9,29.96,WNW,284,1.0,12.0,40,0.00,,,0.00,Wunderground v.1.15,2013-05-12 21:08:00,
2013-05-12 17:10:00,90.5,62.9,29.96,West,276,6.0,6.0,40,0.00,,,0.00,Wunderground v.1.15,2013-05-12 21:10:00,
2013-05-12 17:12:00,90.3,62.7,29.96,West,272,3.0,8.0,40,0.00,,,0.00,Wunderground v.1.15,2013-05-12 21:12:00,
2013-05-12 17:13:00,90.3,62.7,29.96,NW,312,6.0,11.0,40,0.00,,,0.00,Wunderground v.1.15,2013-05-12 21:13:00,
2013-05-12 17:15:00,90.1,63.2,29.96,NW,315,4.0,11.0,41,0.00,,,0.00,Wunderground v.1.15,2013-05-12 21:15:00,
2013-05-12 17:17:00,89.9,63.0,29.96,WNW,295,0.0,11.0,41,0.00,,,0.00,Wunderground v.1.15,2013-05-12 21:17:00,
2013-05-12 17:18:00,89.9,63.0,29.96,WNW,284,5.0,11.0,41,0.00,,,0.00,Wunderground v.1.15,2013-05-12 21:18:00,
2013-05-12 17:20:00,89.7,63.6,29.96,North,9,8.0,8.0,42,0.00,,,0.00,Wunderground v.1.15,2013-05-12 21:20:00,
2013-05-12 17:22:00,89.5,63.4,29.96,North,5,1.0,9.0,42,0.00,,,0.00,Wunderground v.1.15,2013-05-12 21:22:00,
2013-05-12 17:23:00,89.5,63.4,29.96,North,360,3.0,9.0,42,0.00,,,0.00,Wunderground v.1.15,2013-05-12 21:23:00,
2013-05-12 17:25:00,89.5,63.4,29.96,NNE,32,1.0,9.0,42,0.00,,,0.00,Wunderground v.1.15,2013-05-12 21:25:00,
2013-05-12 17:26:00,89.5,63.4,29.96,NE,34,1.0,9.0,42,0.00,,,0.00,Wunderground v.1.15,2013-05-12 21:26:00,
2013-05-12 17:27:00,89.5,63.4,29.96,NW,309,6.0,9.0,42,0.00,,,0.00,Wunderground v.1.15,2013-05-12 21:27:00,
2013-05-12 17:28:00,89.5,63.4,29.96,West,278,5.0,9.0,42,0.00,,,0.00,Wunderground v.1.15,2013-05-12 21:28:00,
2013-05-12 17:29:00,89.5,63.4,29.96,NNW,340,4.0,10.0,42,0.00,,,0.00,Wunderground v.1.15,2013-05-12 21:29:00,
2013-05-12 17:30:00,89.5,64.0,29.96,WSW,242,9.0,9.0,43,0.00,,,0.00,Wunderground v.1.15,2013-05-12 21:30:00,
2013-05-12 17:31:00,89.5,64.0,29.96,West,268,11.0,12.0,43,0.00,,,0.00,Wunderground v.1.15,2013-05-12 21:31:00,
2013-05-12 17:32:00,89.5,63.4,29.96,WSW,257,9.0,12.0,42,0.00,,,0.00,Wunderground v.1.15,2013-05-12 21:32:00,
2013-05-12 17:34:00,89.5,64.0,29.96,NNW,340,5.0,12.0,43,0.00,,,0.00,Wunderground v.1.15,2013-05-12 21:34:00,
2013-05-12 17:36:00,89.5,64.0,29.96,WSW,258,1.0,12.0,43,0.00,,,0.00,Wunderground v.1.15,2013-05-12 21:36:00,
2013-05-12 17:38:00,89.3,63.9,29.96,NNW,335,2.0,12.0,43,0.00,,,0.00,Wunderground v.1.15,2013-05-12 21:38:00,
2013-05-12 17:39:00,89.3,63.9,29.96,WNW,289,0.0,12.0,43,0.00,,,0.00,Wunderground v.1.15,2013-05-12 21:39:00,
2013-05-12 17:41:00,89.3,64.5,29.96,NNW,342,4.0,7.0,44,0.00,,,0.00,Wunderground v.1.15,2013-05-12 21:41:00,
2013-05-12 17:43:00,89.3,64.5,29.96,NE,34,1.0,8.0,44,0.00,,,0.00,Wunderground v.1.15,2013-05-12 21:43:00,
2013-05-12 17:44:00,89.3,64.5,29.96,North,9,0.0,8.0,44,0.00,,,0.00,Wunderground v.1.15,2013-05-12 21:44:00,
2013-05-12 17:46:00,89.3,64.5,29.96,West,275,6.0,8.0,44,0.00,,,0.00,Wunderground v.1.15,2013-05-12 21:46:00,
2013-05-12 17:48:00,89.3,63.9,29.96,WSW,242,1.0,8.0,43,0.00,,,0.00,Wunderground v.1.15,2013-05-12 21:48:00,
2013-05-12 17:49:00,89.3,64.5,29.96,West,273,0.0,8.0,44,0.00,,,0.00,Wunderground v.1.15,2013-05-12 21:49:00,
2013-05-12 17:51:00,89.3,63.9,29.96,West,281,4.0,9.0,43,0.00,,,0.00,Wunderground v.1.15,2013-05-12 21:51:00,
2013-05-12 17:52:00,89.3,63.9,29.96,West,275,3.0,9.0,43,0.00,,,0.00,Wunderground v.1.15,2013-05-12 21:52:00,
2013-05-12 17:53:00,89.3,63.9,29.96,WNW,289,2.0,9.0,43,0.00,,,0.00,Wunderground v.1.15,2013-05-12 21:53:00,
2013-05-12 17:54:00,89.3,63.9,29.96,NW,310,5.0,11.0,43,0.00,,,0.00,Wunderground v.1.15,2013-05-12 21:54:00,
2013-05-12 17:57:00,89.0,63.6,29.96,West,264,11.0,11.0,43,0.00,,,0.00,Wunderground v.1.15,2013-05-12 21:57:00,
2013-05-12 17:58:00,88.8,63.4,29.96,North,350,2.0,11.0,43,0.00,,,0.00,Wunderground v.1.15,2013-05-12 21:58:00,
2013-05-12 17:59:00,88.8,63.4,29.96,WNW,288,4.0,11.0,43,0.00,,,0.00,Wunderground v.1.15,2013-05-12 21:59:00,
2013-05-12 18:02:00,88.8,64.1,29.97,NW,317,3.0,9.0,44,0.00,,,0.00,Wunderground v.1.15,2013-05-12 22:02:00,
2013-05-12 18:04:00,88.6,63.9,29.97,North,355,1.0,10.0,44,0.00,,,0.00,Wunderground v.1.15,2013-05-12 22:04:00,
2013-05-12 18:05:00,88.4,63.7,29.96,NNW,340,5.0,10.0,44,0.00,,,0.00,Wunderground v.1.15,2013-05-12 22:05:00,
2013-05-12 18:07:00,88.4,64.4,29.97,NW,313,5.0,13.0,45,0.00,,,0.00,Wunderground v.1.15,2013-05-12 22:07:00,
2013-05-12 18:09:00,88.2,64.2,29.97,WNW,290,3.0,13.0,45,0.00,,,0.00,Wunderground v.1.15,2013-05-12 22:09:00,
2013-05-12 18:10:00,88.2,64.2,29.97,NNW,333,0.0,5.0,45,0.00,,,0.00,Wunderground v.1.15,2013-05-12 22:10:00,
2013-05-12 18:12:00,88.2,64.2,29.97,WNW,290,2.0,8.0,45,0.00,,,0.00,Wunderground v.1.15,2013-05-12 22:12:00,
2013-05-12 18:14:00,88.0,64.0,29.97,West,265,4.0,10.0,45,0.00,,,0.00,Wunderground v.1.15,2013-05-12 22:14:00,
2013-05-12 18:15:00,88.0,64.0,29.97,WNW,293,0.0,10.0,45,0.00,,,0.00,Wunderground v.1.15,2013-05-12 22:15:00,
2013-05-12 18:16:00,88.0,64.0,29.97,WSW,257,2.0,10.0,45,0.00,,,0.00,Wunderground v.1.15,2013-05-12 22:16:00,
2013-05-12 18:17:00,87.8,63.8,29.97,WSW,257,3.0,10.0,45,0.00,,,0.00,Wunderground v.1.15,2013-05-12 22:17:00,
2013-05-12 18:20:00,87.8,64.4,29.97,West,259,2.0,3.0,46,0.00,,,0.00,Wunderground v.1.15,2013-05-12 22:20:00,
2013-05-12 18:21:00,87.6,64.3,29.97,WNW,301,4.0,9.0,46,0.00,,,0.00,Wunderground v.1.15,2013-05-12 22:21:00,
2013-05-12 18:22:00,87.6,63.6,29.97,WNW,293,7.0,13.0,45,0.00,,,0.00,Wunderground v.1.15,2013-05-12 22:22:00,
2013-05-12 18:25:00,87.2,63.9,29.97,WNW,296,7.0,13.0,46,0.00,,,0.00,Wunderground v.1.15,2013-05-12 22:25:00,
2013-05-12 18:26:00,87.2,63.9,29.97,NW,308,6.0,13.0,46,0.00,,,0.00,Wunderground v.1.15,2013-05-12 22:26:00,
2013-05-12 18:27:00,87.0,64.3,29.97,WNW,290,1.0,13.0,47,0.00,,,0.00,Wunderground v.1.15,2013-05-12 22:27:00,
2013-05-12 18:28:00,87.0,64.3,29.97,NW,304,2.0,13.0,47,0.00,,,0.00,Wunderground v.1.15,2013-05-12 22:28:00,
2013-05-12 18:31:00,86.7,64.1,29.97,NNW,327,0.0,8.0,47,0.00,,,0.00,Wunderground v.1.15,2013-05-12 22:31:00,
2013-05-12 18:33:00,86.7,64.1,29.97,West,277,10.0,10.0,47,0.00,,,0.00,Wunderground v.1.15,2013-05-12 22:33:00,
2013-05-12 18:36:00,86.5,63.9,29.97,North,350,4.0,10.0,47,0.00,,,0.00,Wunderground v.1.15,2013-05-12 22:36:00,
2013-05-12 18:37:00,86.5,63.9,29.97,NNW,339,1.0,10.0,47,0.00,,,0.00,Wunderground v.1.15,2013-05-12 22:37:00,
2013-05-12 18:38:00,86.5,64.5,29.97,NNE,26,1.0,10.0,48,0.00,,,0.00,Wunderground v.1.15,2013-05-12 22:38:00,
2013-05-12 18:41:00,86.3,64.3,29.97,NW,320,4.0,6.0,48,0.00,,,0.00,Wunderground v.1.15,2013-05-12 22:41:00,
2013-05-12 18:42:00,86.3,64.3,29.97,West,265,1.0,8.0,48,0.00,,,0.00,Wunderground v.1.15,2013-05-12 22:42:00,
2013-05-12 18:43:00,86.1,64.1,29.97,NW,321,5.0,8.0,48,0.00,,,0.00,Wunderground v.1.15,2013-05-12 22:43:00,
2013-05-12 18:46:00,86.1,64.1,29.97,NW,313,6.0,9.0,48,0.00,,,0.00,Wunderground v.1.15,2013-05-12 22:46:00,
2013-05-12 18:47:00,85.9,63.9,29.97,SW,221,4.0,9.0,48,0.00,,,0.00,Wunderground v.1.15,2013-05-12 22:47:00,
2013-05-12 18:48:00,85.9,63.3,29.97,SSW,201,1.0,10.0,47,0.00,,,0.00,Wunderground v.1.15,2013-05-12 22:48:00,
2013-05-12 18:51:00,85.7,63.8,29.97,WNW,286,4.0,9.0,48,0.00,,,0.00,Wunderground v.1.15,2013-05-12 22:51:00,
2013-05-12 18:52:00,85.7,63.8,29.97,NW,318,0.0,9.0,48,0.00,,,0.00,Wunderground v.1.15,2013-05-12 22:52:00,
2013-05-12 18:53:00,85.7,63.8,29.97,NW,320,0.0,9.0,48,0.00,,,0.00,Wunderground v.1.15,2013-05-12 22:53:00,
2013-05-12 18:54:00,85.7,63.8,29.97,NW,304,6.0,9.0,48,0.00,,,0.00,Wunderground v.1.15,2013-05-12 22:54:00,
2013-05-12 18:56:00,85.5,63.6,29.97,WSW,258,3.0,9.0,48,0.00,,,0.00,Wunderground v.1.15,2013-05-12 22:56:00,
2013-05-12 18:57:00,85.5,63.6,29.98,West,266,0.0,9.0,48,0.00,,,0.00,Wunderground v.1.15,2013-05-12 22:57:00,
2013-05-12 18:58:00,85.5,64.2,29.98,NW,306,3.0,9.0,49,0.00,,,0.00,Wunderground v.1.15,2013-05-12 22:58:00,
2013-05-12 18:59:00,85.3,63.4,29.98,NW,325,0.0,10.0,48,0.00,,,0.00,Wunderground v.1.15,2013-05-12 22:59:00,
2013-05-12 19:01:00,85.3,63.4,29.98,NNW,335,4.0,7.0,48,0.00,,,0.00,Wunderground v.1.15,2013-05-12 23:01:00,
2013-05-12 19:02:00,85.3,63.4,29.98,NNW,334,1.0,7.0,48,0.00,,,0.00,Wunderground v.1.15,2013-05-12 23:02:00,
2013-05-12 19:03:00,85.1,63.2,29.98,NNW,334,5.0,8.0,48,0.00,,,0.00,Wunderground v.1.15,2013-05-12 23:03:00,
2013-05-12 19:04:00,85.1,63.2,29.98,North,360,2.0,8.0,48,0.00,,,0.00,Wunderground v.1.15,2013-05-12 23:04:00,
2013-05-12 19:06:00,85.1,63.2,29.98,WNW,300,4.0,8.0,48,0.00,,,0.00,Wunderground v.1.15,2013-05-12 23:06:00,
2013-05-12 19:07:00,84.9,63.6,29.98,WSW,238,9.0,12.0,49,0.00,,,0.00,Wunderground v.1.15,2013-05-12 23:07:00,
2013-05-12 19:08:00,84.9,63.0,29.98,West,273,3.0,12.0,48,0.00,,,0.00,Wunderground v.1.15,2013-05-12 23:08:00,
2013-05-12 19:10:00,84.9,63.0,29.98,West,275,7.0,7.0,48,0.00,,,0.00,Wunderground v.1.15,2013-05-12 23:10:00,
2013-05-12 19:12:00,84.7,63.4,29.98,NW,309,1.0,7.0,49,0.00,,,0.00,Wunderground v.1.15,2013-05-12 23:12:00,
2013-05-12 19:13:00,84.7,63.4,29.98,WNW,289,8.0,10.0,49,0.00,,,0.00,Wunderground v.1.15,2013-05-12 23:13:00,
2013-05-12 19:14:00,84.7,63.4,29.98,WSW,247,7.0,11.0,49,0.00,,,0.00,Wunderground v.1.15,2013-05-12 23:14:00,
2013-05-12 19:15:00,84.5,63.2,29.98,North,5,4.0,11.0,49,0.00,,,0.00,Wunderground v.1.15,2013-05-12 23:15:00,
2013-05-12 19:17:00,84.5,63.2,29.98,West,277,3.0,11.0,49,0.00,,,0.00,Wunderground v.1.15,2013-05-12 23:17:00,
2013-05-12 19:18:00,84.3,63.1,29.98,West,278,4.0,11.0,49,0.00,,,0.00,Wunderground v.1.15,2013-05-12 23:18:00,
2013-05-12 19:19:00,84.3,63.1,29.98,NNW,348,0.0,11.0,49,0.00,,,0.00,Wunderground v.1.15,2013-05-12 23:19:00,
2013-05-12 19:20:00,84.3,63.1,29.98,West,261,5.0,7.0,49,0.00,,,0.00,Wunderground v.1.15,2013-05-12 23:20:00,
2013-05-12 19:22:00,84.1,62.9,29.98,NW,314,4.0,7.0,49,0.00,,,0.00,Wunderground v.1.15,2013-05-12 23:22:00,
2013-05-12 19:23:00,84.1,62.9,29.98,West,274,0.0,7.0,49,0.00,,,0.00,Wunderground v.1.15,2013-05-12 23:23:00,
2013-05-12 19:24:00,84.1,63.5,29.98,West,261,0.0,7.0,50,0.00,,,0.00,Wunderground v.1.15,2013-05-12 23:24:00,
2013-05-12 19:25:00,84.1,63.5,29.98,NW,304,2.0,7.0,50,0.00,,,0.00,Wunderground v.1.15,2013-05-12 23:25:00,
2013-05-12 19:28:00,84.0,63.4,29.98,West,265,6.0,7.0,50,0.00,,,0.00,Wunderground v.1.15,2013-05-12 23:28:00,
2013-05-12 19:29:00,84.0,63.4,29.98,NNE,18,2.0,7.0,50,0.00,,,0.00,Wunderground v.1.15,2013-05-12 23:29:00,
2013-05-12 19:31:00,84.0,63.4,29.98,WNW,288,4.0,4.0,50,0.00,,,0.00,Wunderground v.1.15,2013-05-12 23:31:00,
2013-05-12 19:33:00,83.8,63.2,29.98,West,274,0.0,10.0,50,0.00,,,0.00,Wunderground v.1.15,2013-05-12 23:33:00,
2013-05-12 19:36:00,83.8,63.2,29.98,WNW,288,2.0,10.0,50,0.00,,,0.00,Wunderground v.1.15,2013-05-12 23:36:00,
2013-05-12 19:38:00,83.6,63.0,29.98,NNW,344,5.0,10.0,50,0.00,,,0.00,Wunderground v.1.15,2013-05-12 23:38:00,
2013-05-12 19:39:00,83.6,63.0,29.99,WNW,302,0.0,10.0,50,0.00,,,0.00,Wunderground v.1.15,2013-05-12 23:39:00,
2013-05-12 19:41:00,83.6,63.6,29.99,WNW,282,0.0,5.0,51,0.00,,,0.00,Wunderground v.1.15,2013-05-12 23:41:00,
2013-05-12 19:43:00,83.4,63.4,29.99,West,275,0.0,5.0,51,0.00,,,0.00,Wunderground v.1.15,2013-05-12 23:43:00,
2013-05-12 19:44:00,83.4,63.4,29.99,WNW,292,0.0,5.0,51,0.00,,,0.00,Wunderground v.1.15,2013-05-12 23:44:00,
2013-05-12 19:46:00,83.4,63.4,29.99,North,5,1.0,5.0,51,0.00,,,0.00,Wunderground v.1.15,2013-05-12 23:46:00,
2013-05-12 19:48:00,83.4,63.4,29.99,WNW,284,2.0,7.0,51,0.00,,,0.00,Wunderground v.1.15,2013-05-12 23:48:00,
2013-05-12 19:49:00,83.2,63.2,29.99,SW,218,5.0,8.0,51,0.00,,,0.00,Wunderground v.1.15,2013-05-12 23:49:00,
2013-05-12 19:51:00,83.2,63.2,29.99,NW,304,4.0,8.0,51,0.00,,,0.00,Wunderground v.1.15,2013-05-12 23:51:00,
2013-05-12 19:53:00,83.0,63.0,29.99,West,281,0.0,9.0,51,0.00,,,0.00,Wunderground v.1.15,2013-05-12 23:53:00,
2013-05-12 19:54:00,83.0,63.0,29.99,NW,312,5.0,9.0,51,0.00,,,0.00,Wunderground v.1.15,2013-05-12 23:54:00,
2013-05-12 19:56:00,82.8,62.8,29.99,West,281,2.0,9.0,51,0.00,,,0.00,Wunderground v.1.15,2013-05-12 23:56:00,
2013-05-12 19:58:00,82.8,62.8,29.99,West,270,0.0,9.0,51,0.00,,,0.00,Wunderground v.1.15,2013-05-12 23:58:00,
2013-05-12 19:59:00,82.8,62.8,29.99,West,276,3.0,9.0,51,0.00,,,0.00,Wunderground v.1.15,2013-05-12 23:59:00,
2013-05-12 20:00:00,82.8,62.8,29.99,NW,318,3.0,5.0,51,0.00,,,0.00,Wunderground v.1.15,2013-05-13 00:00:00,
2013-05-12 20:01:00,82.6,62.6,29.99,West,272,1.0,5.0,51,0.00,,,0.00,Wunderground v.1.15,2013-05-13 00:01:00,
2013-05-12 20:03:00,82.6,63.2,30.00,West,281,1.0,5.0,52,0.00,,,0.00,Wunderground v.1.15,2013-05-13 00:03:00,
2013-05-12 20:04:00,82.6,63.2,30.00,WNW,297,4.0,5.0,52,0.00,,,0.00,Wunderground v.1.15,2013-05-13 00:04:00,
2013-05-12 20:05:00,82.4,63.0,30.00,WNW,290,5.0,5.0,52,0.00,,,0.00,Wunderground v.1.15,2013-05-13 00:05:00,
2013-05-12 20:07:00,82.4,63.0,30.00,WSW,247,5.0,5.0,52,0.00,,,0.00,Wunderground v.1.15,2013-05-13 00:07:00,
2013-05-12 20:09:00,82.2,62.8,30.00,WNW,296,0.0,7.0,52,0.00,,,0.00,Wunderground v.1.15,2013-05-13 00:09:00,
2013-05-12 20:10:00,82.2,62.8,30.00,WNW,296,0.0,2.0,52,0.00,,,0.00,Wunderground v.1.15,2013-05-13 00:10:00,
2013-05-12 20:12:00,82.2,63.4,30.00,NW,316,0.0,5.0,53,0.00,,,0.00,Wunderground v.1.15,2013-05-13 00:12:00,
2013-05-12 20:15:00,82.0,63.2,30.00,West,267,2.0,6.0,53,0.00,,,0.00,Wunderground v.1.15,2013-05-13 00:15:00,
2013-05-12 20:17:00,81.8,63.0,30.00,West,271,4.0,6.0,53,0.00,,,0.00,Wunderground v.1.15,2013-05-13 00:17:00,
2013-05-12 20:20:00,81.8,63.0,30.00,WSW,254,3.0,6.0,53,0.00,,,0.00,Wunderground v.1.15,2013-05-13 00:20:00,
2013-05-12 20:22:00,81.6,62.8,30.00,WNW,287,2.0,7.0,53,0.00,,,0.00,Wunderground v.1.15,2013-05-13 00:22:00,
2013-05-12 20:25:00,81.4,62.6,30.00,West,262,7.0,11.0,53,0.00,,,0.00,Wunderground v.1.15,2013-05-13 00:25:00,
2013-05-12 20:26:00,81.4,62.6,30.01,NW,306,1.0,11.0,53,0.00,,,0.00,Wunderground v.1.15,2013-05-13 00:26:00,
2013-05-12 20:27:00,81.4,62.6,30.01,WNW,292,2.0,11.0,53,0.00,,,0.00,Wunderground v.1.15,2013-05-13 00:27:00,
2013-05-12 20:28:00,81.4,62.6,30.01,WNW,300,2.0,11.0,53,0.00,,,0.00,Wunderground v.1.15,2013-05-13 00:28:00,
2013-05-12 20:31:00,81.2,62.4,30.01,WNW,284,4.0,7.0,53,0.00,,,0.00,Wunderground v.1.15,2013-05-13 00:31:00,
2013-05-12 20:32:00,81.2,62.4,30.01,NW,322,1.0,7.0,53,0.00,,,0.00,Wunderground v.1.15,2013-05-13 00:32:00,
2013-05-12 20:33:00,81.2,62.4,30.01,NW,321,1.0,7.0,53,0.00,,,0.00,Wunderground v.1.15,2013-05-13 00:33:00,
2013-05-12 20:36:00,81.1,62.3,30.01,WNW,290,2.0,9.0,53,0.00,,,0.00,Wunderground v.1.15,2013-05-13 00:36:00,
2013-05-12 20:37:00,81.1,62.3,30.01,WNW,294,0.0,9.0,53,0.00,,,0.00,Wunderground v.1.15,2013-05-13 00:37:00,
2013-05-12 20:38:00,81.1,62.3,30.01,West,281,0.0,9.0,53,0.00,,,0.00,Wunderground v.1.15,2013-05-13 00:38:00,
2013-05-12 20:41:00,80.9,62.2,30.01,WNW,288,5.0,10.0,53,0.00,,,0.00,Wunderground v.1.15,2013-05-13 00:41:00,
2013-05-12 20:42:00,80.9,62.2,30.00,NW,306,1.0,10.0,53,0.00,,,0.00,Wunderground v.1.15,2013-05-13 00:42:00,
2013-05-12 20:43:00,80.7,62.0,30.01,WNW,298,3.0,10.0,53,0.00,,,0.00,Wunderground v.1.15,2013-05-13 00:43:00,
2013-05-12 20:46:00,80.7,62.5,30.00,North,355,2.0,10.0,54,0.00,,,0.00,Wunderground v.1.15,2013-05-13 00:46:00,
2013-05-12 20:47:00,80.7,62.5,30.01,WNW,302,5.0,10.0,54,0.00,,,0.00,Wunderground v.1.15,2013-05-13 00:47:00,
2013-05-12 20:48:00,80.5,62.3,30.01,WSW,255,4.0,10.0,54,0.00,,,0.00,Wunderground v.1.15,2013-05-13 00:48:00,
2013-05-12 20:51:00,80.5,62.3,30.01,NNW,336,0.0,4.0,54,0.00,,,0.00,Wunderground v.1.15,2013-05-13 00:51:00,
2013-05-12 20:52:00,80.3,62.1,30.01,WNW,297,0.0,4.0,54,0.00,,,0.00,Wunderground v.1.15,2013-05-13 00:52:00,
2013-05-12 20:53:00,80.3,62.1,30.01,NW,306,0.0,4.0,54,0.00,,,0.00,Wunderground v.1.15,2013-05-13 00:53:00,
2013-05-12 20:56:00,80.3,62.7,30.01,WNW,302,0.0,4.0,55,0.00,,,0.00,Wunderground v.1.15,2013-05-13 00:56:00,
2013-05-12 20:57:00,80.3,62.7,30.01,WNW,302,0.0,4.0,55,0.00,,,0.00,Wunderground v.1.15,2013-05-13 00:57:00,
2013-05-12 20:58:00,80.3,62.7,30.01,WNW,302,0.0,4.0,55,0.00,,,0.00,Wunderground v.1.15,2013-05-13 00:58:00,
2013-05-12 20:59:00,80.3,62.7,30.01,WNW,295,1.0,4.0,55,0.00,,,0.00,Wunderground v.1.15,2013-05-13 00:59:00,
2013-05-12 21:02:00,80.1,62.5,30.01,WNW,300,0.0,5.0,55,0.00,,,0.00,Wunderground v.1.15,2013-05-13 01:02:00,
2013-05-12 21:03:00,80.1,62.5,30.01,WNW,300,0.0,5.0,55,0.00,,,0.00,Wunderground v.1.15,2013-05-13 01:03:00,
2013-05-12 21:04:00,80.1,62.5,30.01,NW,312,0.0,5.0,55,0.00,,,0.00,Wunderground v.1.15,2013-05-13 01:04:00,
2013-05-12 21:08:00,79.9,62.8,30.01,West,271,1.0,5.0,56,0.00,,,0.00,Wunderground v.1.15,2013-05-13 01:08:00,
2013-05-12 21:09:00,79.9,62.8,30.01,West,271,0.0,5.0,56,0.00,,,0.00,Wunderground v.1.15,2013-05-13 01:09:00,
2013-05-12 21:13:00,79.8,62.7,30.01,West,272,3.0,3.0,56,0.00,,,0.00,Wunderground v.1.15,2013-05-13 01:13:00,
2013-05-12 21:14:00,79.8,62.7,30.01,West,273,0.0,3.0,56,0.00,,,0.00,Wunderground v.1.15,2013-05-13 01:14:00,
2013-05-12 21:18:00,79.6,62.5,30.01,WNW,294,1.0,5.0,56,0.00,,,0.00,Wunderground v.1.15,2013-05-13 01:18:00,
2013-05-12 21:19:00,79.6,62.5,30.01,WNW,294,0.0,5.0,56,0.00,,,0.00,Wunderground v.1.15,2013-05-13 01:19:00,
2013-05-12 21:23:00,79.6,63.0,30.01,WNW,290,0.0,1.0,57,0.00,,,0.00,Wunderground v.1.15,2013-05-13 01:23:00,
2013-05-12 21:24:00,79.6,63.0,30.01,WNW,290,0.0,1.0,57,0.00,,,0.00,Wunderground v.1.15,2013-05-13 01:24:00,
2013-05-12 21:25:00,79.4,62.8,30.01,WNW,290,0.0,1.0,57,0.00,,,0.00,Wunderground v.1.15,2013-05-13 01:25:00,
2013-05-12 21:28:00,79.4,62.8,30.02,WNW,290,0.0,1.0,57,0.00,,,0.00,Wunderground v.1.15,2013-05-13 01:28:00,
2013-05-12 21:29:00,79.4,62.8,30.02,WNW,290,0.0,1.0,57,0.00,,,0.00,Wunderground v.1.15,2013-05-13 01:29:00,
2013-05-12 21:30:00,79.4,62.8,30.02,WNW,290,0.0,0.0,57,0.00,,,0.00,Wunderground v.1.15,2013-05-13 01:30:00,
2013-05-12 21:33:00,79.2,62.7,30.02,WNW,290,0.0,1.0,57,0.00,,,0.00,Wunderground v.1.15,2013-05-13 01:33:00,
2013-05-12 21:34:00,79.2,63.1,30.02,WNW,290,0.0,1.0,58,0.00,,,0.00,Wunderground v.1.15,2013-05-13 01:34:00,
2013-05-12 21:35:00,79.2,63.1,30.02,NW,311,1.0,3.0,58,0.00,,,0.00,Wunderground v.1.15,2013-05-13 01:35:00,
2013-05-12 21:36:00,79.2,63.1,30.02,West,277,0.0,4.0,58,0.00,,,0.00,Wunderground v.1.15,2013-05-13 01:36:00,
2013-05-12 21:39:00,79.0,63.0,30.03,NW,320,0.0,4.0,58,0.00,,,0.00,Wunderground v.1.15,2013-05-13 01:39:00,
2013-05-12 21:40:00,79.0,63.0,30.03,NW,313,1.0,1.0,58,0.00,,,0.00,Wunderground v.1.15,2013-05-13 01:40:00,
2013-05-12 21:41:00,79.0,63.0,30.03,NW,312,0.0,2.0,58,0.00,,,0.00,Wunderground v.1.15,2013-05-13 01:41:00,
2013-05-12 21:44:00,78.8,62.8,30.03,NW,304,0.0,4.0,58,0.00,,,0.00,Wunderground v.1.15,2013-05-13 01:44:00,
2013-05-12 21:45:00,78.8,62.8,30.03,West,269,4.0,4.0,58,0.00,,,0.00,Wunderground v.1.15,2013-05-13 01:45:00,
2013-05-12 21:46:00,78.8,62.8,30.03,NW,311,0.0,4.0,58,0.00,,,0.00,Wunderground v.1.15,2013-05-13 01:46:00,
2013-05-12 21:49:00,78.6,62.6,30.03,West,277,0.0,4.0,58,0.00,,,0.00,Wunderground v.1.15,2013-05-13 01:49:00,
2013-05-12 21:50:00,78.6,63.1,30.03,West,277,0.0,1.0,59,0.00,,,0.00,Wunderground v.1.15,2013-05-13 01:50:00,
2013-05-12 21:51:00,78.6,63.1,30.03,West,277,0.0,1.0,59,0.00,,,0.00,Wunderground v.1.15,2013-05-13 01:51:00,
2013-05-12 21:54:00,78.6,63.1,30.03,West,279,0.0,1.0,59,0.00,,,0.00,Wunderground v.1.15,2013-05-13 01:54:00,
2013-05-12 21:56:00,78.5,63.0,30.03,West,279,0.0,1.0,59,0.00,,,0.00,Wunderground v.1.15,2013-05-13 01:56:00,
2013-05-12 21:59:00,78.5,63.0,30.03,NW,315,0.0,3.0,59,0.00,,,0.00,Wunderground v.1.15,2013-05-13 01:59:00,
2013-05-12 22:00:00,78.5,63.5,30.03,NW,315,0.0,1.0,60,0.00,,,0.00,Wunderground v.1.15,2013-05-13 02:00:00,
2013-05-12 22:01:00,78.3,63.3,30.03,NW,315,0.0,1.0,60,0.00,,,0.00,Wunderground v.1.15,2013-05-13 02:01:00,
2013-05-12 22:02:00,78.3,63.3,30.03,NW,315,0.0,1.0,60,0.00,,,0.00,Wunderground v.1.15,2013-05-13 02:02:00,
2013-05-12 22:04:00,78.3,63.3,30.04,NW,315,0.0,3.0,60,0.00,,,0.00,Wunderground v.1.15,2013-05-13 02:04:00,
2013-05-12 22:05:00,78.3,63.3,30.04,NW,315,0.0,3.0,60,0.00,,,0.00,Wunderground v.1.15,2013-05-13 02:05:00,
2013-05-12 22:06:00,78.3,63.3,30.04,NW,311,0.0,3.0,60,0.00,,,0.00,Wunderground v.1.15,2013-05-13 02:06:00,
2013-05-12 22:07:00,78.3,63.3,30.04,NW,311,0.0,3.0,60,0.00,,,0.00,Wunderground v.1.15,2013-05-13 02:07:00,
2013-05-12 22:10:00,78.1,63.1,30.04,NW,311,1.0,1.0,60,0.00,,,0.00,Wunderground v.1.15,2013-05-13 02:10:00,
2013-05-12 22:12:00,78.1,63.1,30.04,NW,311,0.0,1.0,60,0.00,,,0.00,Wunderground v.1.15,2013-05-13 02:12:00,
2013-05-12 22:15:00,77.9,63.4,30.04,West,277,0.0,4.0,61,0.00,,,0.00,Wunderground v.1.15,2013-05-13 02:15:00,
2013-05-12 22:17:00,77.9,63.4,30.04,West,277,0.0,4.0,61,0.00,,,0.00,Wunderground v.1.15,2013-05-13 02:17:00,
2013-05-12 22:20:00,77.9,63.4,30.05,West,277,0.0,0.0,61,0.00,,,0.00,Wunderground v.1.15,2013-05-13 02:20:00,
2013-05-12 22:22:00,77.7,63.2,30.05,West,277,0.0,0.0,61,0.00,,,0.00,Wunderground v.1.15,2013-05-13 02:22:00,
2013-05-12 22:23:00,77.7,63.2,30.05,West,277,0.0,0.0,61,0.00,,,0.00,Wunderground v.1.15,2013-05-13 02:23:00,
2013-05-12 22:25:00,77.7,63.2,30.05,WNW,282,0.0,2.0,61,0.00,,,0.00,Wunderground v.1.15,2013-05-13 02:25:00,
2013-05-12 22:27:00,77.7,63.2,30.05,WNW,282,0.0,2.0,61,0.00,,,0.00,Wunderground v.1.15,2013-05-13 02:27:00,
2013-05-12 22:28:00,77.7,63.2,30.05,WNW,282,0.0,2.0,61,0.00,,,0.00,Wunderground v.1.15,2013-05-13 02:28:00,
2013-05-12 22:30:00,77.6,63.1,30.05,West,280,2.0,4.0,61,0.00,,,0.00,Wunderground v.1.15,2013-05-13 02:30:00,
2013-05-12 22:32:00,77.6,63.5,30.05,West,281,0.0,4.0,62,0.00,,,0.00,Wunderground v.1.15,2013-05-13 02:32:00,
2013-05-12 22:33:00,77.6,63.5,30.05,West,281,0.0,4.0,62,0.00,,,0.00,Wunderground v.1.15,2013-05-13 02:33:00,
2013-05-12 22:36:00,77.4,63.4,30.05,West,281,0.0,4.0,62,0.00,,,0.00,Wunderground v.1.15,2013-05-13 02:36:00,
2013-05-12 22:37:00,77.4,63.4,30.05,West,281,0.0,4.0,62,0.00,,,0.00,Wunderground v.1.15,2013-05-13 02:37:00,
2013-05-12 22:38:00,77.4,63.4,30.05,West,281,0.0,4.0,62,0.00,,,0.00,Wunderground v.1.15,2013-05-13 02:38:00,
2013-05-12 22:42:00,77.4,63.4,30.05,West,281,0.0,0.0,62,0.00,,,0.00,Wunderground v.1.15,2013-05-13 02:42:00,
2013-05-12 22:43:00,77.4,63.4,30.05,West,281,0.0,0.0,62,0.00,,,0.00,Wunderground v.1.15,2013-05-13 02:43:00,
2013-05-12 22:47:00,77.2,63.6,30.05,West,281,0.0,1.0,63,0.00,,,0.00,Wunderground v.1.15,2013-05-13 02:47:00,
2013-05-12 22:48:00,77.2,63.6,30.05,West,281,0.0,1.0,63,0.00,,,0.00,Wunderground v.1.15,2013-05-13 02:48:00,
2013-05-12 22:49:00,77.0,63.4,30.05,West,281,0.0,1.0,63,0.00,,,0.00,Wunderground v.1.15,2013-05-13 02:49:00,
2013-05-12 22:52:00,77.0,63.4,30.05,West,281,0.0,0.0,63,0.00,,,0.00,Wunderground v.1.15,2013-05-13 02:52:00,
2013-05-12 22:53:00,77.0,63.4,30.05,West,281,0.0,0.0,63,0.00,,,0.00,Wunderground v.1.15,2013-05-13 02:53:00,
2013-05-12 22:55:00,76.8,63.2,30.06,West,281,0.0,0.0,63,0.00,,,0.00,Wunderground v.1.15,2013-05-13 02:55:00,
2013-05-12 22:57:00,76.8,63.2,30.05,West,281,0.0,0.0,63,0.00,,,0.00,Wunderground v.1.15,2013-05-13 02:57:00,
2013-05-12 22:58:00,76.8,63.2,30.05,West,281,0.0,0.0,63,0.00,,,0.00,Wunderground v.1.15,2013-05-13 02:58:00,
2013-05-12 22:59:00,76.7,63.2,30.05,West,281,0.0,0.0,63,0.00,,,0.00,Wunderground v.1.15,2013-05-13 02:59:00,
2013-05-12 23:00:00,76.7,63.6,30.06,West,281,0.0,0.0,64,0.00,,,0.00,Wunderground v.1.15,2013-05-13 03:00:00,
2013-05-12 23:02:00,76.5,63.4,30.06,West,281,0.0,0.0,64,0.00,,,0.00,Wunderground v.1.15,2013-05-13 03:02:00,
2013-05-12 23:03:00,76.5,63.4,30.06,West,281,0.0,0.0,64,0.00,,,0.00,Wunderground v.1.15,2013-05-13 03:03:00,
2013-05-12 23:04:00,76.5,63.4,30.06,West,281,0.0,0.0,64,0.00,,,0.00,Wunderground v.1.15,2013-05-13 03:04:00,
2013-05-12 23:05:00,76.5,63.4,30.06,West,281,0.0,0.0,64,0.00,,,0.00,Wunderground v.1.15,2013-05-13 03:05:00,
2013-05-12 23:07:00,76.3,63.2,30.06,West,281,0.0,0.0,64,0.00,,,0.00,Wunderground v.1.15,2013-05-13 03:07:00,
2013-05-12 23:08:00,76.3,63.2,30.06,West,281,0.0,0.0,64,0.00,,,0.00,Wunderground v.1.15,2013-05-13 03:08:00,
2013-05-12 23:09:00,76.3,63.2,30.06,West,281,0.0,0.0,64,0.00,,,0.00,Wunderground v.1.15,2013-05-13 03:09:00,
2013-05-12 23:11:00,76.1,63.0,30.05,West,281,0.0,0.0,64,0.00,,,0.00,Wunderground v.1.15,2013-05-13 03:11:00,
2013-05-12 23:13:00,76.1,63.0,30.05,West,281,0.0,0.0,64,0.00,,,0.00,Wunderground v.1.15,2013-05-13 03:13:00,
2013-05-12 23:14:00,76.1,63.5,30.05,West,281,0.0,1.0,65,0.00,,,0.00,Wunderground v.1.15,2013-05-13 03:14:00,
2013-05-12 23:15:00,76.0,63.4,30.05,West,281,0.0,1.0,65,0.00,,,0.00,Wunderground v.1.15,2013-05-13 03:15:00,
2013-05-12 23:16:00,76.0,63.4,30.05,West,281,0.0,1.0,65,0.00,,,0.00,Wunderground v.1.15,2013-05-13 03:16:00,
2013-05-12 23:19:00,75.8,63.2,30.05,West,281,0.0,1.0,65,0.00,,,0.00,Wunderground v.1.15,2013-05-13 03:19:00,
2013-05-12 23:20:00,75.8,63.2,30.05,West,281,0.0,0.0,65,0.00,,,0.00,Wunderground v.1.15,2013-05-13 03:20:00,
2013-05-12 23:21:00,75.8,63.2,30.05,West,281,0.0,0.0,65,0.00,,,0.00,Wunderground v.1.15,2013-05-13 03:21:00,
2013-05-12 23:24:00,75.6,63.4,30.05,West,281,0.0,0.0,66,0.00,,,0.00,Wunderground v.1.15,2013-05-13 03:24:00,
2013-05-12 23:25:00,75.4,63.2,30.05,West,281,0.0,0.0,66,0.00,,,0.00,Wunderground v.1.15,2013-05-13 03:25:00,
2013-05-12 23:26:00,75.4,63.2,30.05,West,281,0.0,0.0,66,0.00,,,0.00,Wunderground v.1.15,2013-05-13 03:26:00,
2013-05-12 23:29:00,75.3,63.2,30.05,West,281,0.0,0.0,66,0.00,,,0.00,Wunderground v.1.15,2013-05-13 03:29:00,
2013-05-12 23:30:00,75.3,63.2,30.05,West,281,0.0,0.0,66,0.00,,,0.00,Wunderground v.1.15,2013-05-13 03:30:00,
2013-05-12 23:32:00,75.1,63.0,30.05,West,281,0.0,0.0,66,0.00,,,0.00,Wunderground v.1.15,2013-05-13 03:32:00,
2013-05-12 23:34:00,74.9,63.2,30.05,West,281,0.0,0.0,67,0.00,,,0.00,Wunderground v.1.15,2013-05-13 03:34:00,
2013-05-12 23:35:00,74.9,63.2,30.05,West,281,0.0,0.0,67,0.00,,,0.00,Wunderground v.1.15,2013-05-13 03:35:00,
2013-05-12 23:36:00,74.9,63.2,30.05,West,281,0.0,0.0,67,0.00,,,0.00,Wunderground v.1.15,2013-05-13 03:36:00,
2013-05-12 23:37:00,74.7,63.0,30.05,West,281,0.0,0.0,67,0.00,,,0.00,Wunderground v.1.15,2013-05-13 03:37:00,
2013-05-12 23:39:00,74.7,63.4,30.05,West,281,0.0,0.0,68,0.00,,,0.00,Wunderground v.1.15,2013-05-13 03:39:00,
2013-05-12 23:41:00,74.6,63.3,30.05,West,281,0.0,0.0,68,0.00,,,0.00,Wunderground v.1.15,2013-05-13 03:41:00,
2013-05-12 23:42:00,74.6,63.3,30.05,West,281,0.0,0.0,68,0.00,,,0.00,Wunderground v.1.15,2013-05-13 03:42:00,
2013-05-12 23:45:00,74.4,63.6,30.05,West,281,0.0,0.0,69,0.00,,,0.00,Wunderground v.1.15,2013-05-13 03:45:00,
2013-05-12 23:46:00,74.4,63.6,30.05,West,281,0.0,0.0,69,0.00,,,0.00,Wunderground v.1.15,2013-05-13 03:46:00,
2013-05-12 23:47:00,74.2,63.4,30.05,West,281,0.0,0.0,69,0.00,,,0.00,Wunderground v.1.15,2013-05-13 03:47:00,
2013-05-12 23:50:00,74.0,63.6,30.05,WNW,282,0.0,0.0,70,0.00,,,0.00,Wunderground v.1.15,2013-05-13 03:50:00,
2013-05-12 23:51:00,74.0,63.6,30.05,WNW,282,0.0,1.0,70,0.00,,,0.00,Wunderground v.1.15,2013-05-13 03:51:00,
2013-05-12 23:52:00,74.0,63.6,30.05,WNW,286,0.0,2.0,70,0.00,,,0.00,Wunderground v.1.15,2013-05-13 03:52:00,
2013-05-12 23:55:00,73.9,63.9,30.05,West,277,0.0,2.0,71,0.00,,,0.00,Wunderground v.1.15,2013-05-13 03:55:00,
2013-05-12 23:56:00,73.9,63.9,30.05,West,277,0.0,2.0,71,0.00,,,0.00,Wunderground v.1.15,2013-05-13 03:56:00,
2013-05-12 23:57:00,73.9,63.9,30.05,West,277,0.0,4.0,71,0.00,,,0.00,Wunderground v.1.15,2013-05-13 03:57:00,
2013-05-12 23:58:00,73.9,63.9,30.05,West,279,0.0,4.0,71,0.00,,,0.00,Wunderground v.1.15,2013-05-13 03:58:00,